Wetterdaten: Montag, 13.07.2015
Datum Zeit Temp. Aussen +5cm Feuchte Auss BlattFeu 1 Luftdruck Regen Sonnenschein Regendauer Solar Windben
13.07.2015 00:00 16,9 C 15,6 C 85 % 0 lf 1017,7 hPa 0,0 l/m 0 min 0 min 0 W/m 14,6 km/h (3 Bft)
13.07.2015 00:02 16,9 C 15,6 C 85 % 0 lf 1017,8 hPa 0,0 l/m 0 min 0 min 0 W/m 6,3 km/h (2 Bft)
13.07.2015 00:05 16,9 C 15,6 C 85 % 0 lf 1017,7 hPa 0,0 l/m 0 min 0 min 0 W/m 14,6 km/h (3 Bft)
13.07.2015 00:07 16,8 C 15,6 C 85 % 0 lf 1017,6 hPa 0,0 l/m 0 min 0 min 0 W/m 14,6 km/h (3 Bft)
13.07.2015 00:08 16,8 C 15,6 C 85 % 0 lf 1017,6 hPa 0,0 l/m 0 min 0 min 0 W/m 10,5 km/h (2 Bft)
13.07.2015 00:10 16,8 C 15,6 C 85 % 0 lf 1017,6 hPa 0,0 l/m 0 min 0 min 0 W/m 10,5 km/h (2 Bft)
13.07.2015 00:12 16,8 C 15,6 C 85 % 0 lf 1017,5 hPa 0,0 l/m 0 min 0 min 0 W/m 14,6 km/h (3 Bft)
13.07.2015 00:14 16,8 C 15,6 C 85 % 0 lf 1017,6 hPa 0,0 l/m 0 min 0 min 0 W/m 12,6 km/h (3 Bft)
13.07.2015 00:16 16,8 C 15,6 C 85 % 0 lf 1017,5 hPa 0,0 l/m 0 min 0 min 0 W/m 16,7 km/h (3 Bft)
13.07.2015 00:18 16,8 C 15,6 C 85 % 0 lf 1017,5 hPa 0,0 l/m 0 min 0 min 0 W/m 10,5 km/h (2 Bft)
13.07.2015 00:20 16,8 C 15,6 C 85 % 0 lf 1017,4 hPa 0,0 l/m 0 min 0 min 0 W/m 10,5 km/h (2 Bft)
13.07.2015 00:22 16,8 C 15,6 C 85 % 0 lf 1017,4 hPa 0,0 l/m 0 min 0 min 0 W/m 14,6 km/h (3 Bft)
13.07.2015 00:24 16,8 C 15,6 C 85 % 0 lf 1017,3 hPa 0,0 l/m 0 min 0 min 0 W/m 12,6 km/h (3 Bft)
13.07.2015 00:26 16,7 C 15,6 C 85 % 0 lf 1017,3 hPa 0,0 l/m 0 min 0 min 0 W/m 18,8 km/h (3 Bft)
13.07.2015 00:28 16,7 C 15,6 C 85 % 0 lf 1017,4 hPa 0,0 l/m 0 min 0 min 0 W/m 18,8 km/h (3 Bft)
13.07.2015 00:30 16,7 C 15,6 C 84 % 0 lf 1017,4 hPa 0,0 l/m 0 min 0 min 0 W/m 12,6 km/h (3 Bft)
13.07.2015 00:32 16,7 C 15,6 C 84 % 0 lf 1017,3 hPa 0,0 l/m 0 min 0 min 0 W/m 18,8 km/h (3 Bft)
13.07.2015 00:34 16,7 C 15,6 C 84 % 0 lf 1017,4 hPa 0,0 l/m 0 min 0 min 0 W/m 14,6 km/h (3 Bft)
13.07.2015 00:36 16,7 C 15,6 C 84 % 0 lf 1017,4 hPa 0,0 l/m 0 min 0 min 0 W/m 12,6 km/h (3 Bft)
13.07.2015 00:38 16,7 C 15,6 C 84 % 0 lf 1017,4 hPa 0,0 l/m 0 min 0 min 0 W/m 16,7 km/h (3 Bft)
13.07.2015 00:40 16,7 C 15,6 C 84 % 0 lf 1017,3 hPa 0,0 l/m 0 min 0 min 0 W/m 20,9 km/h (4 Bft)
13.07.2015 00:42 16,8 C 15,6 C 84 % 0 lf 1017,3 hPa 0,0 l/m 0 min 0 min 0 W/m 25,1 km/h (4 Bft)
13.07.2015 00:44 16,8 C 15,6 C 84 % 0 lf 1017,2 hPa 0,0 l/m 0 min 0 min 0 W/m 18,8 km/h (3 Bft)
13.07.2015 00:46 16,8 C 15,6 C 84 % 0 lf 1017,2 hPa 0,0 l/m 0 min 0 min 0 W/m 16,7 km/h (3 Bft)
13.07.2015 00:48 16,8 C 15,6 C 84 % 0 lf 1017,3 hPa 0,0 l/m 0 min 0 min 0 W/m 18,8 km/h (3 Bft)
13.07.2015 00:50 16,8 C 15,6 C 84 % 0 lf 1017,2 hPa 0,0 l/m 0 min 0 min 0 W/m 27,2 km/h (4 Bft)
13.07.2015 00:52 16,8 C 15,6 C 83 % 0 lf 1017,3 hPa 0,0 l/m 0 min 0 min 0 W/m 33,5 km/h (5 Bft)
13.07.2015 00:54 16,8 C 15,6 C 84 % 0 lf 1017,2 hPa 0,0 l/m 0 min 0 min 0 W/m 29,3 km/h (5 Bft)
13.07.2015 00:56 16,8 C 15,6 C 84 % 0 lf 1017,2 hPa 0,0 l/m 0 min 0 min 0 W/m 27,2 km/h (4 Bft)
13.07.2015 00:58 16,9 C 15,6 C 83 % 0 lf 1017,2 hPa 0,0 l/m 0 min 0 min 0 W/m 29,3 km/h (5 Bft)
13.07.2015 01:00 16,9 C 15,6 C 83 % 0 lf 1017,3 hPa 0,0 l/m 0 min 0 min 0 W/m 27,2 km/h (4 Bft)
13.07.2015 01:02 16,9 C 15,6 C 83 % 0 lf 1017,3 hPa 0,0 l/m 0 min 0 min 0 W/m 31,4 km/h (5 Bft)
13.07.2015 01:04 16,9 C 15,6 C 83 % 0 lf 1017,3 hPa 0,0 l/m 0 min 0 min 0 W/m 23,0 km/h (4 Bft)
13.07.2015 01:06 16,9 C 15,6 C 83 % 0 lf 1017,2 hPa 0,0 l/m 0 min 0 min 0 W/m 18,8 km/h (3 Bft)
13.07.2015 01:08 16,9 C 15,6 C 83 % 0 lf 1017,3 hPa 0,0 l/m 0 min 0 min 0 W/m 20,9 km/h (4 Bft)
13.07.2015 01:10 16,9 C 15,6 C 83 % 0 lf 1017,3 hPa 0,0 l/m 0 min 0 min 0 W/m 27,2 km/h (4 Bft)
13.07.2015 01:12 16,9 C 15,6 C 83 % 0 lf 1017,2 hPa 0,0 l/m 0 min 0 min 0 W/m 23,0 km/h (4 Bft)
13.07.2015 01:14 16,9 C 15,6 C 83 % 0 lf 1017,2 hPa 0,0 l/m 0 min 0 min 0 W/m 16,7 km/h (3 Bft)
13.07.2015 01:16 16,9 C 15,6 C 83 % 0 lf 1017,2 hPa 0,0 l/m 0 min 0 min 0 W/m 18,8 km/h (3 Bft)
13.07.2015 01:18 16,9 C 15,0 C 83 % 0 lf 1017,2 hPa 0,0 l/m 0 min 0 min 0 W/m 20,9 km/h (4 Bft)
13.07.2015 01:20 16,9 C 15,0 C 83 % 0 lf 1017,1 hPa 0,0 l/m 0 min 0 min 0 W/m 14,6 km/h (3 Bft)
13.07.2015 01:22 16,8 C 15,0 C 83 % 0 lf 1017,1 hPa 0,0 l/m 0 min 0 min 0 W/m 14,6 km/h (3 Bft)
13.07.2015 01:24 16,8 C 15,0 C 83 % 0 lf 1017,1 hPa 0,0 l/m 0 min 0 min 0 W/m 12,6 km/h (3 Bft)
13.07.2015 01:26 16,8 C 15,0 C 83 % 0 lf 1017,2 hPa 0,0 l/m 0 min 0 min 0 W/m 18,8 km/h (3 Bft)
13.07.2015 01:28 16,8 C 15,0 C 83 % 0 lf 1017,1 hPa 0,0 l/m 0 min 0 min 0 W/m 16,7 km/h (3 Bft)
13.07.2015 01:30 16,8 C 15,0 C 83 % 0 lf 1017,2 hPa 0,0 l/m 0 min 0 min 0 W/m 10,5 km/h (2 Bft)
13.07.2015 01:32 16,8 C 15,0 C 83 % 0 lf 1017,2 hPa 0,0 l/m 0 min 0 min 0 W/m 18,8 km/h (3 Bft)
13.07.2015 01:34 16,7 C 15,0 C 83 % 0 lf 1017,2 hPa 0,0 l/m 0 min 0 min 0 W/m 12,6 km/h (3 Bft)
13.07.2015 01:36 16,7 C 15,0 C 83 % 0 lf 1017,2 hPa 0,0 l/m 0 min 0 min 0 W/m 14,6 km/h (3 Bft)
13.07.2015 01:38 16,7 C 15,0 C 83 % 0 lf 1017,2 hPa 0,0 l/m 0 min 0 min 0 W/m 16,7 km/h (3 Bft)
13.07.2015 01:40 16,7 C 15,0 C 84 % 0 lf 1017,1 hPa 0,0 l/m 0 min 0 min 0 W/m 16,7 km/h (3 Bft)
13.07.2015 01:42 16,7 C 15,0 C 84 % 0 lf 1017,1 hPa 0,0 l/m 0 min 0 min 0 W/m 14,6 km/h (3 Bft)
13.07.2015 01:44 16,7 C 15,0 C 84 % 0 lf 1017,2 hPa 0,0 l/m 0 min 0 min 0 W/m 12,6 km/h (3 Bft)
13.07.2015 01:46 16,7 C 15,0 C 84 % 0 lf 1017,2 hPa 0,0 l/m 0 min 0 min 0 W/m 20,9 km/h (4 Bft)
13.07.2015 01:48 16,7 C 15,0 C 84 % 0 lf 1017,2 hPa 0,0 l/m 0 min 0 min 0 W/m 14,6 km/h (3 Bft)
13.07.2015 01:50 16,6 C 15,0 C 84 % 0 lf 1017,2 hPa 0,0 l/m 0 min 0 min 0 W/m 16,7 km/h (3 Bft)
13.07.2015 01:52 16,6 C 15,0 C 84 % 0 lf 1017,1 hPa 0,0 l/m 0 min 0 min 0 W/m 10,5 km/h (2 Bft)
13.07.2015 01:54 16,6 C 15,0 C 84 % 0 lf 1017,1 hPa 0,0 l/m 0 min 0 min 0 W/m 12,6 km/h (3 Bft)
13.07.2015 01:56 16,6 C 15,0 C 84 % 0 lf 1017,0 hPa 0,0 l/m 0 min 0 min 0 W/m 14,6 km/h (3 Bft)
13.07.2015 01:58 16,6 C 15,0 C 84 % 0 lf 1017,0 hPa 0,0 l/m 0 min 0 min 0 W/m 18,8 km/h (3 Bft)
13.07.2015 02:00 16,6 C 15,0 C 84 % 0 lf 1016,9 hPa 0,0 l/m 0 min 0 min 0 W/m 14,6 km/h (3 Bft)
13.07.2015 02:02 16,6 C 15,0 C 84 % 0 lf 1016,9 hPa 0,0 l/m 0 min 0 min 0 W/m 14,6 km/h (3 Bft)
13.07.2015 02:04 16,6 C 15,0 C 84 % 0 lf 1016,9 hPa 0,0 l/m 0 min 0 min 0 W/m 16,7 km/h (3 Bft)
13.07.2015 02:06 16,6 C 15,0 C 84 % 0 lf 1016,8 hPa 0,0 l/m 0 min 0 min 0 W/m 14,6 km/h (3 Bft)
13.07.2015 02:08 16,5 C 15,0 C 84 % 0 lf 1016,7 hPa 0,0 l/m 0 min 0 min 0 W/m 20,9 km/h (4 Bft)
13.07.2015 02:10 16,5 C 15,0 C 84 % 0 lf 1016,7 hPa 0,0 l/m 0 min 0 min 0 W/m 18,8 km/h (3 Bft)
13.07.2015 02:12 16,5 C 15,0 C 84 % 0 lf 1016,6 hPa 0,0 l/m 0 min 0 min 0 W/m 16,7 km/h (3 Bft)
13.07.2015 02:14 16,5 C 15,0 C 84 % 0 lf 1016,5 hPa 0,0 l/m 0 min 0 min 0 W/m 16,7 km/h (3 Bft)
13.07.2015 02:16 16,5 C 15,0 C 84 % 0 lf 1016,5 hPa 0,0 l/m 0 min 0 min 0 W/m 14,6 km/h (3 Bft)
13.07.2015 02:18 16,4 C 15,0 C 84 % 0 lf 1016,5 hPa 0,0 l/m 0 min 0 min 0 W/m 14,6 km/h (3 Bft)
13.07.2015 02:20 16,4 C 15,0 C 84 % 0 lf 1016,5 hPa 0,0 l/m 0 min 0 min 0 W/m 18,8 km/h (3 Bft)
13.07.2015 02:22 16,4 C 15,0 C 84 % 0 lf 1016,5 hPa 0,0 l/m 0 min 0 min 0 W/m 18,8 km/h (3 Bft)
13.07.2015 02:24 16,4 C 15,0 C 84 % 0 lf 1016,5 hPa 0,0 l/m 0 min 0 min 0 W/m 14,6 km/h (3 Bft)
13.07.2015 02:26 16,4 C 15,0 C 84 % 0 lf 1016,5 hPa 0,0 l/m 0 min 0 min 0 W/m 12,6 km/h (3 Bft)
13.07.2015 02:28 16,4 C 15,0 C 84 % 0 lf 1016,5 hPa 0,0 l/m 0 min 0 min 0 W/m 14,6 km/h (3 Bft)
13.07.2015 02:30 16,4 C 15,0 C 84 % 0 lf 1016,4 hPa 0,0 l/m 0 min 0 min 0 W/m 12,6 km/h (3 Bft)
13.07.2015 02:32 16,3 C 15,0 C 84 % 0 lf 1016,5 hPa 0,0 l/m 0 min 0 min 0 W/m 10,5 km/h (2 Bft)
13.07.2015 02:34 16,3 C 15,0 C 84 % 0 lf 1016,4 hPa 0,0 l/m 0 min 0 min 0 W/m 12,6 km/h (3 Bft)
13.07.2015 02:36 16,3 C 15,0 C 84 % 0 lf 1016,5 hPa 0,0 l/m 0 min 0 min 0 W/m 14,6 km/h (3 Bft)
13.07.2015 02:38 16,3 C 15,0 C 84 % 0 lf 1016,5 hPa 0,0 l/m 0 min 0 min 0 W/m 10,5 km/h (2 Bft)
13.07.2015 02:40 16,3 C 15,0 C 84 % 0 lf 1016,5 hPa 0,0 l/m 0 min 0 min 0 W/m 12,6 km/h (3 Bft)
13.07.2015 02:42 16,3 C 15,0 C 84 % 0 lf 1016,5 hPa 0,0 l/m 0 min 0 min 0 W/m 10,5 km/h (2 Bft)
13.07.2015 02:44 16,3 C 15,0 C 85 % 0 lf 1016,5 hPa 0,0 l/m 0 min 0 min 0 W/m 16,7 km/h (3 Bft)
13.07.2015 02:46 16,3 C 15,0 C 85 % 0 lf 1016,4 hPa 0,0 l/m 0 min 0 min 0 W/m 14,6 km/h (3 Bft)
13.07.2015 02:48 16,3 C 15,0 C 85 % 0 lf 1016,3 hPa 0,0 l/m 0 min 0 min 0 W/m 10,5 km/h (2 Bft)
13.07.2015 02:50 16,3 C 15,0 C 85 % 0 lf 1016,4 hPa 0,0 l/m 0 min 0 min 0 W/m 10,5 km/h (2 Bft)
13.07.2015 02:52 16,3 C 15,0 C 85 % 0 lf 1016,4 hPa 0,0 l/m 0 min 0 min 0 W/m 10,5 km/h (2 Bft)
13.07.2015 02:54 16,3 C 15,0 C 85 % 0 lf 1016,4 hPa 0,0 l/m 0 min 0 min 0 W/m 12,6 km/h (3 Bft)
13.07.2015 02:56 16,3 C 15,0 C 85 % 0 lf 1016,3 hPa 0,0 l/m 0 min 0 min 0 W/m 16,7 km/h (3 Bft)
13.07.2015 02:58 16,3 C 15,0 C 85 % 0 lf 1016,4 hPa 0,0 l/m 0 min 0 min 0 W/m 12,6 km/h (3 Bft)
13.07.2015 03:00 16,3 C 15,0 C 85 % 0 lf 1016,3 hPa 0,0 l/m 0 min 0 min 0 W/m 14,6 km/h (3 Bft)
13.07.2015 03:02 16,3 C 15,0 C 85 % 0 lf 1016,4 hPa 0,0 l/m 0 min 0 min 0 W/m 10,5 km/h (2 Bft)
13.07.2015 03:04 16,3 C 15,0 C 85 % 0 lf 1016,4 hPa 0,0 l/m 0 min 0 min 0 W/m 8,4 km/h (2 Bft)
13.07.2015 03:06 16,3 C 15,0 C 85 % 0 lf 1016,5 hPa 0,0 l/m 0 min 0 min 0 W/m 18,8 km/h (3 Bft)
13.07.2015 03:08 16,3 C 15,0 C 85 % 0 lf 1016,5 hPa 0,0 l/m 0 min 0 min 0 W/m 18,8 km/h (3 Bft)
13.07.2015 03:10 16,3 C 15,0 C 85 % 0 lf 1016,6 hPa 0,0 l/m 0 min 0 min 0 W/m 12,6 km/h (3 Bft)
13.07.2015 03:12 16,3 C 15,0 C 85 % 0 lf 1016,6 hPa 0,0 l/m 0 min 0 min 0 W/m 10,5 km/h (2 Bft)
13.07.2015 03:14 16,3 C 15,0 C 85 % 0 lf 1016,6 hPa 0,0 l/m 0 min 0 min 0 W/m 10,5 km/h (2 Bft)
13.07.2015 03:16 16,3 C 15,0 C 85 % 0 lf 1016,5 hPa 0,0 l/m 0 min 0 min 0 W/m 12,6 km/h (3 Bft)
13.07.2015 03:18 16,3 C 15,0 C 85 % 0 lf 1016,4 hPa 0,0 l/m 0 min 0 min 0 W/m 8,4 km/h (2 Bft)
13.07.2015 03:20 16,3 C 15,0 C 85 % 0 lf 1016,4 hPa 0,0 l/m 0 min 0 min 0 W/m 10,5 km/h (2 Bft)
13.07.2015 03:22 16,3 C 15,0 C 85 % 0 lf 1016,4 hPa 0,0 l/m 0 min 0 min 0 W/m 12,6 km/h (3 Bft)
13.07.2015 03:24 16,3 C 15,0 C 85 % 0 lf 1016,4 hPa 0,0 l/m 0 min 0 min 0 W/m 12,6 km/h (3 Bft)
13.07.2015 03:26 16,3 C 15,0 C 85 % 0 lf 1016,4 hPa 0,0 l/m 0 min 0 min 0 W/m 10,5 km/h (2 Bft)
13.07.2015 03:28 16,3 C 15,0 C 85 % 0 lf 1016,5 hPa 0,0 l/m 0 min 0 min 0 W/m 12,6 km/h (3 Bft)
13.07.2015 03:30 16,3 C 15,0 C 85 % 0 lf 1016,5 hPa 0,0 l/m 0 min 0 min 0 W/m 14,6 km/h (3 Bft)
13.07.2015 03:32 16,3 C 15,0 C 85 % 0 lf 1016,4 hPa 0,0 l/m 0 min 0 min 0 W/m 12,6 km/h (3 Bft)
13.07.2015 03:34 16,3 C 15,0 C 85 % 0 lf 1016,5 hPa 0,0 l/m 0 min 0 min 0 W/m 14,6 km/h (3 Bft)
13.07.2015 03:36 16,3 C 15,0 C 85 % 0 lf 1016,6 hPa 0,0 l/m 0 min 0 min 0 W/m 10,5 km/h (2 Bft)
13.07.2015 03:38 16,4 C 15,0 C 85 % 0 lf 1016,6 hPa 0,0 l/m 0 min 0 min 0 W/m 10,5 km/h (2 Bft)
13.07.2015 03:40 16,4 C 15,0 C 85 % 0 lf 1016,6 hPa 0,0 l/m 0 min 0 min 0 W/m 10,5 km/h (2 Bft)
13.07.2015 03:42 16,4 C 15,0 C 85 % 0 lf 1016,6 hPa 0,0 l/m 0 min 0 min 0 W/m 10,5 km/h (2 Bft)
13.07.2015 03:44 16,4 C 15,0 C 85 % 0 lf 1016,6 hPa 0,0 l/m 0 min 0 min 0 W/m 12,6 km/h (3 Bft)
13.07.2015 03:46 16,4 C 15,0 C 85 % 0 lf 1016,6 hPa 0,0 l/m 0 min 0 min 0 W/m 10,5 km/h (2 Bft)
13.07.2015 03:48 16,4 C 15,0 C 85 % 0 lf 1016,6 hPa 0,0 l/m 0 min 0 min 0 W/m 10,5 km/h (2 Bft)
13.07.2015 03:50 16,4 C 15,0 C 85 % 0 lf 1016,5 hPa 0,0 l/m 0 min 0 min 0 W/m 10,5 km/h (2 Bft)
13.07.2015 03:52 16,4 C 15,0 C 85 % 0 lf 1016,5 hPa 0,0 l/m 0 min 0 min 0 W/m 12,6 km/h (3 Bft)
13.07.2015 03:54 16,4 C 15,0 C 85 % 0 lf 1016,5 hPa 0,0 l/m 0 min 0 min 0 W/m 8,4 km/h (2 Bft)
13.07.2015 03:56 16,4 C 15,0 C 85 % 0 lf 1016,5 hPa 0,0 l/m 0 min 0 min 0 W/m 10,5 km/h (2 Bft)
13.07.2015 03:58 16,4 C 15,0 C 85 % 0 lf 1016,4 hPa 0,0 l/m 0 min 0 min 0 W/m 10,5 km/h (2 Bft)
13.07.2015 04:00 16,4 C 15,0 C 85 % 0 lf 1016,4 hPa 0,0 l/m 0 min 0 min 0 W/m 12,6 km/h (3 Bft)
13.07.2015 04:02 16,4 C 15,0 C 85 % 0 lf 1016,5 hPa 0,0 l/m 0 min 0 min 0 W/m 12,6 km/h (3 Bft)
13.07.2015 04:04 16,4 C 15,0 C 85 % 0 lf 1016,5 hPa 0,0 l/m 0 min 0 min 0 W/m 14,6 km/h (3 Bft)
13.07.2015 04:06 16,4 C 15,0 C 85 % 0 lf 1016,4 hPa 0,0 l/m 0 min 0 min 0 W/m 12,6 km/h (3 Bft)
13.07.2015 04:08 16,4 C 15,0 C 85 % 0 lf 1016,3 hPa 0,0 l/m 0 min 0 min 0 W/m 12,6 km/h (3 Bft)
13.07.2015 04:10 16,4 C 15,0 C 85 % 0 lf 1016,3 hPa 0,0 l/m 0 min 0 min 0 W/m 12,6 km/h (3 Bft)
13.07.2015 04:12 16,4 C 15,0 C 85 % 0 lf 1016,4 hPa 0,0 l/m 0 min 0 min 0 W/m 10,5 km/h (2 Bft)
13.07.2015 04:14 16,4 C 15,0 C 85 % 0 lf 1016,4 hPa 0,0 l/m 0 min 0 min 0 W/m 10,5 km/h (2 Bft)
13.07.2015 04:16 16,5 C 15,0 C 85 % 0 lf 1016,4 hPa 0,0 l/m 0 min 0 min 0 W/m 14,6 km/h (3 Bft)
13.07.2015 04:18 16,5 C 15,0 C 85 % 0 lf 1016,3 hPa 0,0 l/m 0 min 0 min 0 W/m 10,5 km/h (2 Bft)
13.07.2015 04:20 16,5 C 15,0 C 85 % 0 lf 1016,2 hPa 0,0 l/m 0 min 0 min 0 W/m 12,6 km/h (3 Bft)
13.07.2015 04:22 16,5 C 15,0 C 85 % 0 lf 1016,2 hPa 0,0 l/m 0 min 0 min 0 W/m 12,6 km/h (3 Bft)
13.07.2015 04:24 16,5 C 15,0 C 85 % 0 lf 1016,3 hPa 0,0 l/m 0 min 0 min 0 W/m 12,6 km/h (3 Bft)
13.07.2015 04:26 16,5 C 15,0 C 85 % 0 lf 1016,3 hPa 0,0 l/m 0 min 0 min 0 W/m 12,6 km/h (3 Bft)
13.07.2015 04:28 16,5 C 15,0 C 85 % 0 lf 1016,3 hPa 0,0 l/m 0 min 0 min 0 W/m 14,6 km/h (3 Bft)
13.07.2015 04:30 16,5 C 15,0 C 85 % 0 lf 1016,3 hPa 0,0 l/m 0 min 0 min 0 W/m 14,6 km/h (3 Bft)
13.07.2015 04:32 16,5 C 15,0 C 85 % 0 lf 1016,3 hPa 0,0 l/m 0 min 0 min 0 W/m 8,4 km/h (2 Bft)
13.07.2015 04:34 16,5 C 15,0 C 85 % 0 lf 1016,3 hPa 0,0 l/m 0 min 0 min 0 W/m 8,4 km/h (2 Bft)
13.07.2015 04:36 16,6 C 15,0 C 85 % 0 lf 1016,3 hPa 0,0 l/m 0 min 0 min 0 W/m 10,5 km/h (2 Bft)
13.07.2015 04:38 16,6 C 15,0 C 85 % 0 lf 1016,4 hPa 0,0 l/m 0 min 0 min 0 W/m 18,8 km/h (3 Bft)
13.07.2015 04:40 16,6 C 15,0 C 85 % 0 lf 1016,4 hPa 0,0 l/m 0 min 0 min 0 W/m 10,5 km/h (2 Bft)
13.07.2015 04:42 16,6 C 15,0 C 85 % 0 lf 1016,3 hPa 0,0 l/m 0 min 0 min 0 W/m 14,6 km/h (3 Bft)
13.07.2015 04:44 16,6 C 15,0 C 85 % 0 lf 1016,3 hPa 0,0 l/m 0 min 0 min 0 W/m 12,6 km/h (3 Bft)
13.07.2015 04:46 16,6 C 15,0 C 85 % 0 lf 1016,4 hPa 0,0 l/m 0 min 0 min 0 W/m 10,5 km/h (2 Bft)
13.07.2015 04:48 16,6 C 15,0 C 85 % 0 lf 1016,4 hPa 0,0 l/m 0 min 0 min 0 W/m 10,5 km/h (2 Bft)
13.07.2015 04:50 16,6 C 15,0 C 85 % 0 lf 1016,4 hPa 0,0 l/m 0 min 0 min 0 W/m 14,6 km/h (3 Bft)
13.07.2015 04:52 16,6 C 15,0 C 85 % 0 lf 1016,4 hPa 0,0 l/m 0 min 0 min 0 W/m 12,6 km/h (3 Bft)
13.07.2015 04:54 16,6 C 15,0 C 85 % 0 lf 1016,4 hPa 0,0 l/m 0 min 0 min 0 W/m 8,4 km/h (2 Bft)
13.07.2015 04:56 16,6 C 15,0 C 85 % 0 lf 1016,4 hPa 0,0 l/m 0 min 0 min 0 W/m 18,8 km/h (3 Bft)
13.07.2015 04:58 16,6 C 15,0 C 85 % 0 lf 1016,4 hPa 0,0 l/m 0 min 0 min 0 W/m 12,6 km/h (3 Bft)
13.07.2015 05:00 16,6 C 15,0 C 85 % 0 lf 1016,4 hPa 0,0 l/m 0 min 0 min 0 W/m 12,6 km/h (3 Bft)
13.07.2015 05:02 16,6 C 15,0 C 85 % 0 lf 1016,4 hPa 0,0 l/m 0 min 0 min 0 W/m 12,6 km/h (3 Bft)
13.07.2015 05:04 16,6 C 15,0 C 85 % 0 lf 1016,3 hPa 0,0 l/m 0 min 0 min 0 W/m 12,6 km/h (3 Bft)
13.07.2015 05:06 16,6 C 15,0 C 85 % 0 lf 1016,4 hPa 0,0 l/m 0 min 0 min 0 W/m 12,6 km/h (3 Bft)
13.07.2015 05:08 16,6 C 15,0 C 85 % 0 lf 1016,4 hPa 0,0 l/m 0 min 0 min 0 W/m 16,7 km/h (3 Bft)
13.07.2015 05:10 16,6 C 15,0 C 85 % 0 lf 1016,4 hPa 0,0 l/m 0 min 0 min 0 W/m 18,8 km/h (3 Bft)
13.07.2015 05:12 16,6 C 15,0 C 85 % 0 lf 1016,3 hPa 0,0 l/m 0 min 0 min 0 W/m 23,0 km/h (4 Bft)
13.07.2015 05:14 16,6 C 15,0 C 85 % 0 lf 1016,4 hPa 0,0 l/m 0 min 0 min 0 W/m 14,6 km/h (3 Bft)
13.07.2015 05:16 16,6 C 15,0 C 85 % 0 lf 1016,4 hPa 0,0 l/m 0 min 0 min 0 W/m 20,9 km/h (4 Bft)
13.07.2015 05:18 16,6 C 15,0 C 85 % 0 lf 1016,4 hPa 0,0 l/m 0 min 0 min 0 W/m 23,0 km/h (4 Bft)
13.07.2015 05:20 16,6 C 15,0 C 85 % 0 lf 1016,4 hPa 0,0 l/m 0 min 0 min 0 W/m 20,9 km/h (4 Bft)
13.07.2015 05:22 16,6 C 15,0 C 85 % 0 lf 1016,3 hPa 0,0 l/m 0 min 0 min 0 W/m 23,0 km/h (4 Bft)
13.07.2015 05:24 16,6 C 15,0 C 85 % 0 lf 1016,4 hPa 0,0 l/m 0 min 0 min 0 W/m 29,3 km/h (5 Bft)
13.07.2015 05:26 16,6 C 15,6 C 85 % 0 lf 1016,3 hPa 0,0 l/m 0 min 0 min 0 W/m 16,7 km/h (3 Bft)
13.07.2015 05:28 16,6 C 15,6 C 85 % 0 lf 1016,3 hPa 0,0 l/m 0 min 0 min 0 W/m 16,7 km/h (3 Bft)
13.07.2015 05:30 16,6 C 15,6 C 85 % 0 lf 1016,3 hPa 0,0 l/m 0 min 0 min 0 W/m 8,4 km/h (2 Bft)
13.07.2015 05:32 16,6 C 15,6 C 85 % 0 lf 1016,3 hPa 0,0 l/m 0 min 0 min 0 W/m 14,6 km/h (3 Bft)
13.07.2015 05:34 16,6 C 15,6 C 85 % 0 lf 1016,3 hPa 0,0 l/m 0 min 0 min 0 W/m 12,6 km/h (3 Bft)
13.07.2015 05:36 16,6 C 15,0 C 85 % 0 lf 1016,3 hPa 0,0 l/m 0 min 0 min 0 W/m 18,8 km/h (3 Bft)
13.07.2015 05:38 16,6 C 15,6 C 85 % 0 lf 1016,2 hPa 0,0 l/m 0 min 0 min 0 W/m 18,8 km/h (3 Bft)
13.07.2015 05:40 16,6 C 15,6 C 85 % 0 lf 1016,2 hPa 0,0 l/m 0 min 0 min 0 W/m 18,8 km/h (3 Bft)
13.07.2015 05:42 16,6 C 15,6 C 85 % 0 lf 1016,2 hPa 0,0 l/m 0 min 0 min 0 W/m 18,8 km/h (3 Bft)
13.07.2015 05:44 16,6 C 15,6 C 85 % 0 lf 1016,3 hPa 0,0 l/m 0 min 0 min 0 W/m 16,7 km/h (3 Bft)
13.07.2015 05:46 16,6 C 15,0 C 85 % 0 lf 1016,3 hPa 0,0 l/m 0 min 0 min 2 W/m 10,5 km/h (2 Bft)
13.07.2015 05:48 16,6 C 15,0 C 85 % 0 lf 1016,2 hPa 0,0 l/m 0 min 0 min 5 W/m 20,9 km/h (4 Bft)
13.07.2015 05:50 16,6 C 15,0 C 85 % 0 lf 1016,1 hPa 0,0 l/m 0 min 0 min 5 W/m 16,7 km/h (3 Bft)
13.07.2015 05:52 16,6 C 15,6 C 85 % 0 lf 1016,2 hPa 0,0 l/m 0 min 0 min 7 W/m 18,8 km/h (3 Bft)
13.07.2015 05:54 16,6 C 15,6 C 85 % 0 lf 1016,2 hPa 0,0 l/m 0 min 0 min 7 W/m 12,6 km/h (3 Bft)
13.07.2015 05:56 16,6 C 15,6 C 85 % 0 lf 1016,1 hPa 0,0 l/m 0 min 0 min 10 W/m 14,6 km/h (3 Bft)
13.07.2015 05:58 16,6 C 15,6 C 85 % 0 lf 1016,1 hPa 0,0 l/m 0 min 0 min 11 W/m 14,6 km/h (3 Bft)
13.07.2015 06:00 16,6 C 15,6 C 85 % 0 lf 1016,2 hPa 0,0 l/m 0 min 0 min 14 W/m 16,7 km/h (3 Bft)
13.07.2015 06:02 16,6 C 15,6 C 85 % 0 lf 1016,1 hPa 0,0 l/m 0 min 0 min 15 W/m 12,6 km/h (3 Bft)
13.07.2015 06:05 16,6 C 15,6 C 85 % 0 lf 1016,2 hPa 0,0 l/m 0 min 0 min 16 W/m 12,6 km/h (3 Bft)
13.07.2015 06:08 16,6 C 15,6 C 85 % 0 lf 1016,2 hPa 0,0 l/m 0 min 0 min 16 W/m 16,7 km/h (3 Bft)
13.07.2015 06:10 16,6 C 15,6 C 85 % 0 lf 1016,1 hPa 0,0 l/m 0 min 0 min 13 W/m 16,7 km/h (3 Bft)
13.07.2015 06:12 16,6 C 15,6 C 85 % 0 lf 1016,2 hPa 0,0 l/m 0 min 0 min 11 W/m 10,5 km/h (2 Bft)
13.07.2015 06:14 16,6 C 15,6 C 85 % 0 lf 1016,2 hPa 0,0 l/m 0 min 0 min 11 W/m 14,6 km/h (3 Bft)
13.07.2015 06:16 16,6 C 15,6 C 85 % 0 lf 1016,2 hPa 0,0 l/m 0 min 0 min 14 W/m 14,6 km/h (3 Bft)
13.07.2015 06:18 16,6 C 15,6 C 85 % 0 lf 1016,2 hPa 0,0 l/m 0 min 0 min 15 W/m 14,6 km/h (3 Bft)
13.07.2015 06:20 16,6 C 15,6 C 85 % 0 lf 1016,2 hPa 0,0 l/m 0 min 0 min 16 W/m 18,8 km/h (3 Bft)
13.07.2015 06:22 16,6 C 15,6 C 85 % 0 lf 1016,2 hPa 0,0 l/m 0 min 0 min 17 W/m 14,6 km/h (3 Bft)
13.07.2015 06:24 16,6 C 15,6 C 85 % 0 lf 1016,2 hPa 0,0 l/m 0 min 0 min 18 W/m 14,6 km/h (3 Bft)
13.07.2015 06:26 16,6 C 15,6 C 85 % 0 lf 1016,2 hPa 0,0 l/m 0 min 0 min 18 W/m 16,7 km/h (3 Bft)
13.07.2015 06:28 16,6 C 15,6 C 85 % 0 lf 1016,2 hPa 0,0 l/m 0 min 0 min 19 W/m 12,6 km/h (3 Bft)
13.07.2015 06:30 16,6 C 15,6 C 85 % 0 lf 1016,2 hPa 0,0 l/m 0 min 0 min 18 W/m 14,6 km/h (3 Bft)
13.07.2015 06:32 16,6 C 15,6 C 85 % 0 lf 1016,2 hPa 0,0 l/m 0 min 0 min 18 W/m 14,6 km/h (3 Bft)
13.07.2015 06:34 16,6 C 15,6 C 85 % 0 lf 1016,2 hPa 0,0 l/m 0 min 0 min 18 W/m 14,6 km/h (3 Bft)
13.07.2015 06:36 16,6 C 15,6 C 85 % 0 lf 1016,2 hPa 0,0 l/m 0 min 0 min 18 W/m 16,7 km/h (3 Bft)
13.07.2015 06:38 16,6 C 15,6 C 85 % 0 lf 1016,2 hPa 0,0 l/m 0 min 0 min 16 W/m 12,6 km/h (3 Bft)
13.07.2015 06:40 16,6 C 15,6 C 86 % 0 lf 1016,1 hPa 0,0 l/m 0 min 0 min 16 W/m 12,6 km/h (3 Bft)
13.07.2015 06:42 16,6 C 15,6 C 86 % 0 lf 1016,2 hPa 0,0 l/m 0 min 0 min 16 W/m 18,8 km/h (3 Bft)
13.07.2015 06:44 16,6 C 15,6 C 86 % 0 lf 1016,2 hPa 0,0 l/m 0 min 0 min 16 W/m 16,7 km/h (3 Bft)
13.07.2015 06:46 16,6 C 15,6 C 85 % 0 lf 1016,1 hPa 0,0 l/m 0 min 0 min 18 W/m 10,5 km/h (2 Bft)
13.07.2015 06:48 16,6 C 15,6 C 85 % 0 lf 1016,1 hPa 0,0 l/m 0 min 0 min 18 W/m 6,3 km/h (2 Bft)
13.07.2015 06:50 16,6 C 15,6 C 86 % 0 lf 1016,1 hPa 0,0 l/m 0 min 0 min 18 W/m 14,6 km/h (3 Bft)
13.07.2015 06:52 16,6 C 15,6 C 86 % 0 lf 1016,1 hPa 0,0 l/m 0 min 0 min 18 W/m 14,6 km/h (3 Bft)
13.07.2015 06:54 16,6 C 15,6 C 86 % 0 lf 1016,1 hPa 0,0 l/m 0 min 0 min 22 W/m 12,6 km/h (3 Bft)
13.07.2015 06:56 16,6 C 15,6 C 86 % 0 lf 1016,1 hPa 0,0 l/m 0 min 0 min 23 W/m 12,6 km/h (3 Bft)
13.07.2015 06:58 16,6 C 15,6 C 86 % 0 lf 1016,0 hPa 0,0 l/m 0 min 0 min 22 W/m 8,4 km/h (2 Bft)
13.07.2015 07:00 16,6 C 15,6 C 86 % 0 lf 1016,0 hPa 0,0 l/m 0 min 0 min 21 W/m 10,5 km/h (2 Bft)
13.07.2015 07:02 16,6 C 15,6 C 86 % 0 lf 1016,0 hPa 0,0 l/m 0 min 0 min 23 W/m 12,6 km/h (3 Bft)
13.07.2015 07:04 16,6 C 15,6 C 86 % 0 lf 1016,0 hPa 0,0 l/m 0 min 0 min 30 W/m 12,6 km/h (3 Bft)
13.07.2015 07:06 16,6 C 15,6 C 86 % 0 lf 1016,0 hPa 0,0 l/m 0 min 0 min 36 W/m 16,7 km/h (3 Bft)
13.07.2015 07:08 16,6 C 15,6 C 86 % 0 lf 1016,1 hPa 0,0 l/m 0 min 0 min 31 W/m 16,7 km/h (3 Bft)
13.07.2015 07:10 16,6 C 15,6 C 86 % 0 lf 1016,1 hPa 0,0 l/m 0 min 0 min 25 W/m 14,6 km/h (3 Bft)
13.07.2015 07:12 16,6 C 15,6 C 86 % 0 lf 1016,1 hPa 0,0 l/m 0 min 0 min 26 W/m 14,6 km/h (3 Bft)
13.07.2015 07:14 16,6 C 15,6 C 86 % 0 lf 1016,1 hPa 0,0 l/m 0 min 0 min 28 W/m 14,6 km/h (3 Bft)
13.07.2015 07:16 16,6 C 15,6 C 86 % 0 lf 1016,1 hPa 0,0 l/m 0 min 0 min 33 W/m 14,6 km/h (3 Bft)
13.07.2015 07:18 16,6 C 15,6 C 86 % 0 lf 1016,2 hPa 0,0 l/m 0 min 0 min 33 W/m 14,6 km/h (3 Bft)
13.07.2015 07:20 16,6 C 15,6 C 86 % 0 lf 1016,1 hPa 0,0 l/m 0 min 0 min 34 W/m 16,7 km/h (3 Bft)
13.07.2015 07:22 16,6 C 15,6 C 86 % 0 lf 1016,1 hPa 0,0 l/m 0 min 0 min 36 W/m 14,6 km/h (3 Bft)
13.07.2015 07:24 16,6 C 15,6 C 86 % 0 lf 1016,0 hPa 0,0 l/m 0 min 0 min 39 W/m 14,6 km/h (3 Bft)
13.07.2015 07:26 16,6 C 15,6 C 86 % 0 lf 1016,0 hPa 0,0 l/m 0 min 0 min 39 W/m 23,0 km/h (4 Bft)
13.07.2015 07:28 16,6 C 15,6 C 86 % 0 lf 1015,9 hPa 0,0 l/m 0 min 0 min 41 W/m 14,6 km/h (3 Bft)
13.07.2015 07:30 16,6 C 15,6 C 86 % 0 lf 1016,0 hPa 0,0 l/m 0 min 0 min 46 W/m 23,0 km/h (4 Bft)
13.07.2015 07:32 16,7 C 15,6 C 86 % 0 lf 1015,9 hPa 0,0 l/m 0 min 0 min 51 W/m 20,9 km/h (4 Bft)
13.07.2015 07:34 16,7 C 15,6 C 86 % 0 lf 1015,9 hPa 0,0 l/m 0 min 0 min 53 W/m 18,8 km/h (3 Bft)
13.07.2015 07:36 16,7 C 15,6 C 86 % 0 lf 1015,9 hPa 0,0 l/m 0 min 0 min 47 W/m 16,7 km/h (3 Bft)
13.07.2015 07:38 16,7 C 15,6 C 87 % 0 lf 1015,9 hPa 0,0 l/m 0 min 0 min 41 W/m 12,6 km/h (3 Bft)
13.07.2015 07:40 16,7 C 15,6 C 87 % 0 lf 1015,9 hPa 0,0 l/m 0 min 0 min 42 W/m 14,6 km/h (3 Bft)
13.07.2015 07:42 16,7 C 15,6 C 87 % 0 lf 1015,9 hPa 0,0 l/m 0 min 0 min 51 W/m 18,8 km/h (3 Bft)
13.07.2015 07:44 16,7 C 15,6 C 87 % 0 lf 1015,9 hPa 0,0 l/m 0 min 0 min 58 W/m 14,6 km/h (3 Bft)
13.07.2015 07:46 16,7 C 15,6 C 87 % 0 lf 1015,8 hPa 0,0 l/m 0 min 0 min 62 W/m 6,3 km/h (2 Bft)
13.07.2015 07:48 16,7 C 15,6 C 87 % 0 lf 1015,9 hPa 0,0 l/m 0 min 0 min 54 W/m 12,6 km/h (3 Bft)
13.07.2015 07:50 16,7 C 15,6 C 87 % 0 lf 1015,9 hPa 0,0 l/m 0 min 0 min 49 W/m 16,7 km/h (3 Bft)
13.07.2015 07:52 16,7 C 15,6 C 87 % 0 lf 1015,9 hPa 0,0 l/m 0 min 0 min 49 W/m 18,8 km/h (3 Bft)
13.07.2015 07:54 16,7 C 15,6 C 87 % 0 lf 1016,0 hPa 0,0 l/m 0 min 0 min 50 W/m 20,9 km/h (4 Bft)
13.07.2015 07:56 16,7 C 15,6 C 87 % 0 lf 1016,0 hPa 0,0 l/m 0 min 0 min 46 W/m 18,8 km/h (3 Bft)
13.07.2015 07:58 16,8 C 15,6 C 87 % 0 lf 1016,0 hPa 0,0 l/m 0 min 0 min 46 W/m 14,6 km/h (3 Bft)
13.07.2015 08:00 16,8 C 15,6 C 87 % 0 lf 1016,1 hPa 0,0 l/m 0 min 0 min 47 W/m 14,6 km/h (3 Bft)
13.07.2015 08:02 16,8 C 15,6 C 87 % 0 lf 1016,1 hPa 0,0 l/m 0 min 0 min 41 W/m 14,6 km/h (3 Bft)
13.07.2015 08:04 16,8 C 15,6 C 87 % 0 lf 1016,1 hPa 0,0 l/m 0 min 0 min 37 W/m 14,6 km/h (3 Bft)
13.07.2015 08:06 16,8 C 15,6 C 87 % 0 lf 1016,1 hPa 0,0 l/m 0 min 0 min 41 W/m 20,9 km/h (4 Bft)
13.07.2015 08:08 16,8 C 15,6 C 87 % 0 lf 1016,1 hPa 0,0 l/m 0 min 0 min 56 W/m 18,8 km/h (3 Bft)
13.07.2015 08:10 16,8 C 15,6 C 87 % 0 lf 1016,1 hPa 0,0 l/m 0 min 0 min 62 W/m 16,7 km/h (3 Bft)
13.07.2015 08:12 16,8 C 15,6 C 87 % 0 lf 1016,1 hPa 0,0 l/m 0 min 0 min 63 W/m 16,7 km/h (3 Bft)
13.07.2015 08:14 16,8 C 15,6 C 87 % 0 lf 1016,1 hPa 0,0 l/m 0 min 0 min 56 W/m 18,8 km/h (3 Bft)
13.07.2015 08:16 16,8 C 15,6 C 87 % 0 lf 1016,1 hPa 0,0 l/m 0 min 0 min 50 W/m 12,6 km/h (3 Bft)
13.07.2015 08:18 16,8 C 15,6 C 87 % 0 lf 1016,1 hPa 0,0 l/m 0 min 0 min 49 W/m 12,6 km/h (3 Bft)
13.07.2015 08:20 16,8 C 15,6 C 87 % 0 lf 1016,1 hPa 0,0 l/m 0 min 0 min 51 W/m 12,6 km/h (3 Bft)
13.07.2015 08:22 16,8 C 15,6 C 87 % 0 lf 1016,1 hPa 0,0 l/m 0 min 0 min 50 W/m 10,5 km/h (2 Bft)
13.07.2015 08:24 16,8 C 15,6 C 87 % 0 lf 1016,1 hPa 0,0 l/m 0 min 0 min 46 W/m 12,6 km/h (3 Bft)
13.07.2015 08:26 16,8 C 15,6 C 87 % 0 lf 1016,2 hPa 0,0 l/m 0 min 0 min 48 W/m 18,8 km/h (3 Bft)
13.07.2015 08:28 16,8 C 15,6 C 87 % 0 lf 1016,2 hPa 0,0 l/m 0 min 0 min 47 W/m 16,7 km/h (3 Bft)
13.07.2015 08:30 16,8 C 15,6 C 87 % 0 lf 1016,2 hPa 0,0 l/m 0 min 0 min 44 W/m 16,7 km/h (3 Bft)
13.07.2015 08:32 16,8 C 15,6 C 87 % 0 lf 1016,2 hPa 0,0 l/m 0 min 0 min 45 W/m 20,9 km/h (4 Bft)
13.07.2015 08:34 16,8 C 15,6 C 87 % 0 lf 1016,2 hPa 0,0 l/m 0 min 0 min 46 W/m 14,6 km/h (3 Bft)
13.07.2015 08:36 16,8 C 15,6 C 87 % 0 lf 1016,2 hPa 0,0 l/m 0 min 0 min 45 W/m 16,7 km/h (3 Bft)
13.07.2015 08:38 16,8 C 15,6 C 87 % 0 lf 1016,2 hPa 0,0 l/m 0 min 0 min 49 W/m 16,7 km/h (3 Bft)
13.07.2015 08:40 16,8 C 15,6 C 87 % 0 lf 1016,2 hPa 0,0 l/m 0 min 0 min 49 W/m 18,8 km/h (3 Bft)
13.07.2015 08:42 16,8 C 15,6 C 87 % 0 lf 1016,1 hPa 0,0 l/m 0 min 0 min 52 W/m 14,6 km/h (3 Bft)
13.07.2015 08:44 16,8 C 15,6 C 87 % 0 lf 1016,1 hPa 0,0 l/m 0 min 0 min 61 W/m 14,6 km/h (3 Bft)
13.07.2015 08:46 16,8 C 15,6 C 87 % 0 lf 1016,2 hPa 0,0 l/m 0 min 0 min 69 W/m 14,6 km/h (3 Bft)
13.07.2015 08:48 16,8 C 15,6 C 87 % 0 lf 1016,2 hPa 0,0 l/m 0 min 0 min 67 W/m 12,6 km/h (3 Bft)
13.07.2015 08:50 16,8 C 15,6 C 87 % 5 lf 1016,3 hPa 0,0 l/m 0 min 0 min 67 W/m 12,6 km/h (3 Bft)
13.07.2015 08:52 16,8 C 15,6 C 87 % 3 lf 1016,4 hPa 0,0 l/m 0 min 2 min 65 W/m 23,0 km/h (4 Bft)
13.07.2015 08:54 16,8 C 15,6 C 88 % 1 lf 1016,4 hPa 0,0 l/m 0 min 0 min 64 W/m 25,1 km/h (4 Bft)
13.07.2015 08:56 16,8 C 15,6 C 88 % 0 lf 1016,3 hPa 0,0 l/m 0 min 0 min 91 W/m 18,8 km/h (3 Bft)
13.07.2015 08:58 16,8 C 15,6 C 88 % 0 lf 1016,3 hPa 0,0 l/m 0 min 0 min 111 W/m 14,6 km/h (3 Bft)
13.07.2015 09:00 16,8 C 15,6 C 88 % 0 lf 1016,3 hPa 0,0 l/m 0 min 0 min 114 W/m 12,6 km/h (3 Bft)
13.07.2015 09:02 16,8 C 15,6 C 88 % 0 lf 1016,2 hPa 0,0 l/m 0 min 0 min 125 W/m 6,3 km/h (2 Bft)
13.07.2015 09:04 16,8 C 16,1 C 88 % 0 lf 1016,2 hPa 0,0 l/m 0 min 0 min 138 W/m 10,5 km/h (2 Bft)
13.07.2015 09:06 16,8 C 16,1 C 89 % 0 lf 1016,2 hPa 0,0 l/m 0 min 0 min 130 W/m 20,9 km/h (4 Bft)
13.07.2015 09:08 16,8 C 16,1 C 89 % 0 lf 1016,2 hPa 0,0 l/m 0 min 0 min 116 W/m 14,6 km/h (3 Bft)
13.07.2015 09:10 16,9 C 16,1 C 89 % 0 lf 1016,2 hPa 0,0 l/m 0 min 0 min 107 W/m 14,6 km/h (3 Bft)
13.07.2015 09:12 16,9 C 16,1 C 89 % 0 lf 1016,2 hPa 0,0 l/m 0 min 0 min 105 W/m 16,7 km/h (3 Bft)
13.07.2015 09:14 16,9 C 16,1 C 89 % 0 lf 1016,2 hPa 0,0 l/m 0 min 0 min 108 W/m 14,6 km/h (3 Bft)
13.07.2015 09:16 16,9 C 16,1 C 89 % 0 lf 1016,2 hPa 0,0 l/m 0 min 0 min 109 W/m 18,8 km/h (3 Bft)
13.07.2015 09:18 16,9 C 16,1 C 89 % 0 lf 1016,2 hPa 0,0 l/m 0 min 0 min 91 W/m 14,6 km/h (3 Bft)
13.07.2015 09:20 16,9 C 16,1 C 89 % 0 lf 1016,2 hPa 0,0 l/m 0 min 0 min 79 W/m 18,8 km/h (3 Bft)
13.07.2015 09:22 16,9 C 16,1 C 89 % 0 lf 1016,2 hPa 0,0 l/m 0 min 0 min 71 W/m 14,6 km/h (3 Bft)
13.07.2015 09:24 16,9 C 16,1 C 89 % 0 lf 1016,3 hPa 0,0 l/m 0 min 0 min 70 W/m 12,6 km/h (3 Bft)
13.07.2015 09:26 16,9 C 16,1 C 89 % 0 lf 1016,2 hPa 0,0 l/m 0 min 0 min 75 W/m 12,6 km/h (3 Bft)
13.07.2015 09:28 16,9 C 16,1 C 89 % 0 lf 1016,2 hPa 0,0 l/m 0 min 0 min 83 W/m 12,6 km/h (3 Bft)
13.07.2015 09:30 16,9 C 16,1 C 89 % 0 lf 1016,3 hPa 0,0 l/m 0 min 0 min 77 W/m 16,7 km/h (3 Bft)
13.07.2015 09:32 16,9 C 16,1 C 89 % 0 lf 1016,3 hPa 0,0 l/m 0 min 0 min 76 W/m 14,6 km/h (3 Bft)
13.07.2015 09:34 16,9 C 16,1 C 89 % 0 lf 1016,3 hPa 0,0 l/m 0 min 0 min 83 W/m 20,9 km/h (4 Bft)
13.07.2015 09:36 16,9 C 16,1 C 89 % 0 lf 1016,3 hPa 0,0 l/m 0 min 0 min 84 W/m 20,9 km/h (4 Bft)
13.07.2015 09:38 16,9 C 16,1 C 89 % 0 lf 1016,4 hPa 0,0 l/m 0 min 0 min 87 W/m 20,9 km/h (4 Bft)
13.07.2015 09:40 16,9 C 16,1 C 89 % 0 lf 1016,4 hPa 0,0 l/m 0 min 0 min 92 W/m 18,8 km/h (3 Bft)
13.07.2015 09:42 16,9 C 15,6 C 89 % 0 lf 1016,5 hPa 0,0 l/m 0 min 0 min 95 W/m 18,8 km/h (3 Bft)
13.07.2015 09:44 16,9 C 15,6 C 89 % 0 lf 1016,4 hPa 0,0 l/m 0 min 0 min 93 W/m 23,0 km/h (4 Bft)
13.07.2015 09:46 16,9 C 15,6 C 89 % 0 lf 1016,4 hPa 0,0 l/m 0 min 0 min 90 W/m 20,9 km/h (4 Bft)
13.07.2015 09:48 16,9 C 15,6 C 90 % 0 lf 1016,4 hPa 0,0 l/m 0 min 0 min 102 W/m 14,6 km/h (3 Bft)
13.07.2015 09:50 16,9 C 16,1 C 90 % 0 lf 1016,5 hPa 0,0 l/m 0 min 0 min 114 W/m 20,9 km/h (4 Bft)
13.07.2015 09:52 16,9 C 16,1 C 90 % 1 lf 1016,4 hPa 0,0 l/m 0 min 0 min 109 W/m 14,6 km/h (3 Bft)
13.07.2015 09:54 16,9 C 16,1 C 90 % 2 lf 1016,4 hPa 0,0 l/m 0 min 0 min 107 W/m 12,6 km/h (3 Bft)
13.07.2015 09:56 16,9 C 15,6 C 90 % 1 lf 1016,4 hPa 0,0 l/m 0 min 0 min 87 W/m 12,6 km/h (3 Bft)
13.07.2015 09:58 16,9 C 15,6 C 90 % 0 lf 1016,5 hPa 0,0 l/m 0 min 0 min 82 W/m 14,6 km/h (3 Bft)
13.07.2015 10:00 16,9 C 15,6 C 90 % 0 lf 1016,5 hPa 0,0 l/m 0 min 0 min 74 W/m 14,6 km/h (3 Bft)
13.07.2015 10:02 16,9 C 15,6 C 90 % 0 lf 1016,5 hPa 0,0 l/m 0 min 0 min 71 W/m 20,9 km/h (4 Bft)
13.07.2015 10:04 16,9 C 15,6 C 90 % 1 lf 1016,4 hPa 0,0 l/m 0 min 0 min 76 W/m 16,7 km/h (3 Bft)
13.07.2015 10:06 16,9 C 15,0 C 90 % 4 lf 1016,4 hPa 0,0 l/m 0 min 0 min 78 W/m 16,7 km/h (3 Bft)
13.07.2015 10:08 16,8 C 15,0 C 91 % 3 lf 1016,4 hPa 0,0 l/m 0 min 0 min 78 W/m 23,0 km/h (4 Bft)
13.07.2015 10:10 16,8 C 15,0 C 91 % 5 lf 1016,5 hPa 0,0 l/m 0 min 0 min 85 W/m 20,9 km/h (4 Bft)
13.07.2015 10:12 16,8 C 15,0 C 91 % 14 lf 1016,4 hPa 0,0 l/m 0 min 2 min 88 W/m 20,9 km/h (4 Bft)
13.07.2015 10:14 16,8 C 15,0 C 91 % 15 lf 1016,5 hPa 0,0 l/m 0 min 0 min 103 W/m 16,7 km/h (3 Bft)
13.07.2015 10:16 16,8 C 15,0 C 91 % 15 lf 1016,5 hPa 0,0 l/m 0 min 2 min 106 W/m 16,7 km/h (3 Bft)
13.07.2015 10:18 16,8 C 15,0 C 91 % 15 lf 1016,5 hPa 0,0 l/m 0 min 2 min 116 W/m 16,7 km/h (3 Bft)
13.07.2015 10:20 16,8 C 15,0 C 92 % 15 lf 1016,5 hPa 0,0 l/m 0 min 2 min 120 W/m 16,7 km/h (3 Bft)
13.07.2015 10:22 16,8 C 15,0 C 92 % 15 lf 1016,6 hPa 0,0 l/m 0 min 0 min 109 W/m 18,8 km/h (3 Bft)
13.07.2015 10:24 16,8 C 15,0 C 92 % 15 lf 1016,5 hPa 0,0 l/m 0 min 2 min 118 W/m 16,7 km/h (3 Bft)
13.07.2015 10:26 16,8 C 15,0 C 92 % 15 lf 1016,5 hPa 0,0 l/m 0 min 2 min 124 W/m 18,8 km/h (3 Bft)
13.07.2015 10:28 16,8 C 15,6 C 92 % 15 lf 1016,4 hPa 0,0 l/m 0 min 0 min 143 W/m 12,6 km/h (3 Bft)
13.07.2015 10:30 16,9 C 15,6 C 92 % 15 lf 1016,4 hPa 0,0 l/m 0 min 2 min 143 W/m 20,9 km/h (4 Bft)
13.07.2015 10:32 16,9 C 15,0 C 92 % 15 lf 1016,4 hPa 0,0 l/m 0 min 2 min 138 W/m 20,9 km/h (4 Bft)
13.07.2015 10:34 16,9 C 15,0 C 92 % 15 lf 1016,4 hPa 0,0 l/m 0 min 0 min 138 W/m 16,7 km/h (3 Bft)
13.07.2015 10:36 16,9 C 15,6 C 93 % 15 lf 1016,4 hPa 0,0 l/m 0 min 0 min 150 W/m 8,4 km/h (2 Bft)
13.07.2015 10:38 16,9 C 15,6 C 93 % 15 lf 1016,4 hPa 0,0 l/m 0 min 0 min 149 W/m 20,9 km/h (4 Bft)
13.07.2015 10:40 16,9 C 15,6 C 93 % 15 lf 1016,4 hPa 0,0 l/m 0 min 0 min 145 W/m 14,6 km/h (3 Bft)
13.07.2015 10:42 16,9 C 15,6 C 93 % 15 lf 1016,3 hPa 0,0 l/m 0 min 0 min 159 W/m 12,6 km/h (3 Bft)
13.07.2015 10:44 16,9 C 15,6 C 93 % 15 lf 1016,3 hPa 0,0 l/m 0 min 0 min 156 W/m 18,8 km/h (3 Bft)
13.07.2015 10:46 16,9 C 15,6 C 93 % 15 lf 1016,3 hPa 0,0 l/m 0 min 0 min 160 W/m 18,8 km/h (3 Bft)
13.07.2015 10:48 16,9 C 15,6 C 93 % 15 lf 1016,3 hPa 0,0 l/m 0 min 0 min 166 W/m 25,1 km/h (4 Bft)
13.07.2015 10:50 16,9 C 15,6 C 93 % 15 lf 1016,2 hPa 0,0 l/m 0 min 0 min 166 W/m 23,0 km/h (4 Bft)
13.07.2015 10:52 16,9 C 15,6 C 94 % 15 lf 1016,2 hPa 0,0 l/m 0 min 0 min 173 W/m 16,7 km/h (3 Bft)
13.07.2015 10:54 16,9 C 15,6 C 94 % 15 lf 1016,2 hPa 0,0 l/m 0 min 0 min 157 W/m 18,8 km/h (3 Bft)
13.07.2015 10:56 16,9 C 15,6 C 94 % 15 lf 1016,1 hPa 0,0 l/m 0 min 0 min 156 W/m 18,8 km/h (3 Bft)
13.07.2015 10:58 16,9 C 15,6 C 94 % 13 lf 1016,1 hPa 0,0 l/m 0 min 0 min 132 W/m 25,1 km/h (4 Bft)
13.07.2015 11:00 16,9 C 15,6 C 94 % 13 lf 1016,1 hPa 0,0 l/m 0 min 0 min 134 W/m 23,0 km/h (4 Bft)
13.07.2015 11:02 16,9 C 15,6 C 94 % 12 lf 1016,1 hPa 0,0 l/m 0 min 0 min 141 W/m 14,6 km/h (3 Bft)
13.07.2015 11:04 16,9 C 15,6 C 94 % 10 lf 1016,1 hPa 0,0 l/m 0 min 0 min 150 W/m 12,6 km/h (3 Bft)
13.07.2015 11:06 16,9 C 15,6 C 94 % 5 lf 1016,0 hPa 0,0 l/m 0 min 0 min 178 W/m 10,5 km/h (2 Bft)
13.07.2015 11:08 17,0 C 15,6 C 94 % 2 lf 1016,0 hPa 0,0 l/m 0 min 0 min 176 W/m 16,7 km/h (3 Bft)
13.07.2015 11:10 17,0 C 15,6 C 94 % 0 lf 1016,0 hPa 0,0 l/m 0 min 0 min 154 W/m 18,8 km/h (3 Bft)
13.07.2015 11:12 17,0 C 15,6 C 94 % 0 lf 1016,0 hPa 0,0 l/m 0 min 0 min 159 W/m 18,8 km/h (3 Bft)
13.07.2015 11:14 17,1 C 15,6 C 94 % 0 lf 1016,0 hPa 0,0 l/m 0 min 0 min 155 W/m 16,7 km/h (3 Bft)
13.07.2015 11:16 17,1 C 16,1 C 94 % 0 lf 1016,1 hPa 0,0 l/m 0 min 0 min 162 W/m 14,6 km/h (3 Bft)
13.07.2015 11:18 17,1 C 15,6 C 94 % 0 lf 1016,1 hPa 0,0 l/m 0 min 0 min 138 W/m 25,1 km/h (4 Bft)
13.07.2015 11:20 17,1 C 16,1 C 94 % 0 lf 1016,1 hPa 0,0 l/m 0 min 0 min 137 W/m 20,9 km/h (4 Bft)
13.07.2015 11:22 17,1 C 16,1 C 94 % 0 lf 1016,1 hPa 0,0 l/m 0 min 0 min 120 W/m 16,7 km/h (3 Bft)
13.07.2015 11:24 17,1 C 16,1 C 94 % 0 lf 1016,1 hPa 0,0 l/m 0 min 0 min 120 W/m 20,9 km/h (4 Bft)
13.07.2015 11:26 17,1 C 16,1 C 94 % 0 lf 1016,0 hPa 0,0 l/m 0 min 0 min 130 W/m 20,9 km/h (4 Bft)
13.07.2015 11:28 17,1 C 16,1 C 94 % 0 lf 1016,1 hPa 0,0 l/m 0 min 0 min 123 W/m 20,9 km/h (4 Bft)
13.07.2015 11:30 17,1 C 16,1 C 94 % 0 lf 1016,1 hPa 0,0 l/m 0 min 0 min 110 W/m 12,6 km/h (3 Bft)
13.07.2015 11:32 17,1 C 16,1 C 94 % 0 lf 1016,2 hPa 0,0 l/m 0 min 0 min 112 W/m 16,7 km/h (3 Bft)
13.07.2015 11:34 17,1 C 16,1 C 94 % 0 lf 1016,1 hPa 0,0 l/m 0 min 0 min 99 W/m 18,8 km/h (3 Bft)
13.07.2015 11:36 17,1 C 16,1 C 94 % 0 lf 1016,1 hPa 0,0 l/m 0 min 0 min 97 W/m 23,0 km/h (4 Bft)
13.07.2015 11:38 17,1 C 16,1 C 94 % 0 lf 1016,1 hPa 0,0 l/m 0 min 0 min 90 W/m 18,8 km/h (3 Bft)
13.07.2015 11:40 17,1 C 16,1 C 94 % 0 lf 1016,0 hPa 0,0 l/m 0 min 0 min 94 W/m 14,6 km/h (3 Bft)
13.07.2015 11:42 17,1 C 16,1 C 94 % 0 lf 1015,9 hPa 0,0 l/m 0 min 0 min 64 W/m 10,5 km/h (2 Bft)
13.07.2015 11:44 17,1 C 16,1 C 94 % 0 lf 1016,0 hPa 0,0 l/m 0 min 0 min 52 W/m 18,8 km/h (3 Bft)
13.07.2015 11:46 17,1 C 16,1 C 94 % 2 lf 1016,0 hPa 0,0 l/m 0 min 2 min 49 W/m 16,7 km/h (3 Bft)
13.07.2015 11:48 17,1 C 15,6 C 94 % 1 lf 1016,0 hPa 0,0 l/m 0 min 2 min 80 W/m 18,8 km/h (3 Bft)
13.07.2015 11:50 17,1 C 15,6 C 94 % 0 lf 1016,0 hPa 0,0 l/m 0 min 0 min 110 W/m 18,8 km/h (3 Bft)
13.07.2015 11:52 17,1 C 16,1 C 94 % 0 lf 1015,9 hPa 0,0 l/m 0 min 0 min 125 W/m 20,9 km/h (4 Bft)
13.07.2015 11:54 17,1 C 16,1 C 94 % 0 lf 1015,9 hPa 0,0 l/m 0 min 0 min 96 W/m 23,0 km/h (4 Bft)
13.07.2015 11:56 17,2 C 16,1 C 94 % 0 lf 1015,9 hPa 0,0 l/m 0 min 0 min 81 W/m 18,8 km/h (3 Bft)
13.07.2015 11:58 17,2 C 16,1 C 94 % 1 lf 1015,9 hPa 0,0 l/m 0 min 0 min 77 W/m 14,6 km/h (3 Bft)
13.07.2015 12:00 17,2 C 16,1 C 94 % 1 lf 1015,9 hPa 0,0 l/m 0 min 2 min 65 W/m 14,6 km/h (3 Bft)
13.07.2015 12:02 17,2 C 16,1 C 94 % 3 lf 1015,9 hPa 0,0 l/m 0 min 2 min 65 W/m 14,6 km/h (3 Bft)
13.07.2015 12:05 17,2 C 15,6 C 94 % 10 lf 1015,9 hPa 0,0 l/m 0 min 2 min 100 W/m 27,2 km/h (4 Bft)
13.07.2015 12:08 17,2 C 15,6 C 94 % 15 lf 1015,9 hPa 0,2 l/m 0 min 2 min 89 W/m 27,2 km/h (4 Bft)
13.07.2015 12:10 17,2 C 15,6 C 94 % 15 lf 1015,9 hPa 0,0 l/m 0 min 2 min 109 W/m 12,6 km/h (3 Bft)
13.07.2015 12:12 17,2 C 15,6 C 94 % 15 lf 1015,8 hPa 0,0 l/m 0 min 2 min 102 W/m 18,8 km/h (3 Bft)
13.07.2015 12:14 17,2 C 15,6 C 94 % 15 lf 1015,8 hPa 0,2 l/m 0 min 2 min 136 W/m 18,8 km/h (3 Bft)
13.07.2015 12:16 17,2 C 15,6 C 94 % 15 lf 1015,7 hPa 0,0 l/m 0 min 2 min 147 W/m 10,5 km/h (2 Bft)
13.07.2015 12:18 17,2 C 15,6 C 94 % 15 lf 1015,7 hPa 0,0 l/m 0 min 2 min 145 W/m 8,4 km/h (2 Bft)
13.07.2015 12:20 17,2 C 15,6 C 94 % 15 lf 1015,7 hPa 0,0 l/m 0 min 2 min 137 W/m 20,9 km/h (4 Bft)
13.07.2015 12:22 17,3 C 16,1 C 94 % 15 lf 1015,7 hPa 0,0 l/m 0 min 2 min 128 W/m 14,6 km/h (3 Bft)
13.07.2015 12:24 17,3 C 15,6 C 94 % 15 lf 1015,8 hPa 0,2 l/m 0 min 2 min 138 W/m 18,8 km/h (3 Bft)
13.07.2015 12:26 17,3 C 15,6 C 94 % 15 lf 1015,8 hPa 0,0 l/m 0 min 2 min 114 W/m 12,6 km/h (3 Bft)
13.07.2015 12:28 17,3 C 15,6 C 94 % 15 lf 1015,7 hPa 0,0 l/m 0 min 2 min 105 W/m 6,3 km/h (2 Bft)
13.07.2015 12:30 17,3 C 16,1 C 94 % 15 lf 1015,7 hPa 0,0 l/m 0 min 2 min 99 W/m 10,5 km/h (2 Bft)
13.07.2015 12:32 17,4 C 15,6 C 94 % 15 lf 1015,7 hPa 0,0 l/m 0 min 2 min 106 W/m 10,5 km/h (2 Bft)
13.07.2015 12:34 17,4 C 16,1 C 94 % 15 lf 1015,7 hPa 0,0 l/m 0 min 2 min 119 W/m 14,6 km/h (3 Bft)
13.07.2015 12:36 17,4 C 15,6 C 94 % 15 lf 1015,7 hPa 0,0 l/m 0 min 2 min 136 W/m 20,9 km/h (4 Bft)
13.07.2015 12:38 17,4 C 15,6 C 94 % 15 lf 1015,7 hPa 0,0 l/m 0 min 2 min 137 W/m 14,6 km/h (3 Bft)
13.07.2015 12:40 17,4 C 16,1 C 94 % 15 lf 1015,6 hPa 0,0 l/m 0 min 2 min 155 W/m 16,7 km/h (3 Bft)
13.07.2015 12:42 17,4 C 16,1 C 94 % 15 lf 1015,6 hPa 0,0 l/m 0 min 2 min 155 W/m 14,6 km/h (3 Bft)
13.07.2015 12:44 17,4 C 16,1 C 94 % 15 lf 1015,7 hPa 0,0 l/m 0 min 2 min 156 W/m 18,8 km/h (3 Bft)
13.07.2015 12:46 17,4 C 16,1 C 94 % 15 lf 1015,7 hPa 0,0 l/m 0 min 2 min 177 W/m 18,8 km/h (3 Bft)
13.07.2015 12:48 17,4 C 16,1 C 95 % 15 lf 1015,7 hPa 0,0 l/m 0 min 2 min 174 W/m 10,5 km/h (2 Bft)
13.07.2015 12:50 17,4 C 16,1 C 94 % 15 lf 1015,7 hPa 0,0 l/m 0 min 2 min 176 W/m 16,7 km/h (3 Bft)
13.07.2015 12:52 17,5 C 16,1 C 95 % 15 lf 1015,6 hPa 0,0 l/m 0 min 2 min 200 W/m 25,1 km/h (4 Bft)
13.07.2015 12:54 17,5 C 16,1 C 95 % 15 lf 1015,7 hPa 0,2 l/m 0 min 2 min 204 W/m 20,9 km/h (4 Bft)
13.07.2015 12:56 17,5 C 16,1 C 95 % 15 lf 1015,7 hPa 0,0 l/m 0 min 2 min 227 W/m 20,9 km/h (4 Bft)
13.07.2015 12:58 17,6 C 16,1 C 95 % 15 lf 1015,8 hPa 0,0 l/m 0 min 2 min 204 W/m 16,7 km/h (3 Bft)
13.07.2015 13:00 17,6 C 16,1 C 95 % 15 lf 1015,7 hPa 0,0 l/m 0 min 2 min 187 W/m 14,6 km/h (3 Bft)
13.07.2015 13:02 17,6 C 16,1 C 95 % 15 lf 1015,8 hPa 0,0 l/m 0 min 2 min 197 W/m 25,1 km/h (4 Bft)
13.07.2015 13:04 17,6 C 16,1 C 95 % 15 lf 1015,7 hPa 0,0 l/m 0 min 2 min 203 W/m 29,3 km/h (5 Bft)
13.07.2015 13:06 17,6 C 16,1 C 95 % 15 lf 1015,8 hPa 0,0 l/m 0 min 2 min 191 W/m 16,7 km/h (3 Bft)
13.07.2015 13:08 17,6 C 16,1 C 95 % 15 lf 1015,7 hPa 0,0 l/m 0 min 2 min 197 W/m 18,8 km/h (3 Bft)
13.07.2015 13:10 17,6 C 16,1 C 95 % 15 lf 1015,8 hPa 0,0 l/m 0 min 2 min 204 W/m 23,0 km/h (4 Bft)
13.07.2015 13:12 17,6 C 16,7 C 95 % 15 lf 1015,8 hPa 0,0 l/m 0 min 2 min 245 W/m 18,8 km/h (3 Bft)
13.07.2015 13:14 17,7 C 16,7 C 95 % 15 lf 1015,8 hPa 0,0 l/m 0 min 2 min 282 W/m 16,7 km/h (3 Bft)
13.07.2015 13:16 17,8 C 16,7 C 95 % 15 lf 1015,8 hPa 0,0 l/m 0 min 2 min 285 W/m 18,8 km/h (3 Bft)
13.07.2015 13:18 17,8 C 16,7 C 95 % 15 lf 1015,9 hPa 0,0 l/m 0 min 2 min 283 W/m 20,9 km/h (4 Bft)
13.07.2015 13:20 17,8 C 16,7 C 95 % 15 lf 1015,8 hPa 0,0 l/m 0 min 2 min 271 W/m 18,8 km/h (3 Bft)
13.07.2015 13:22 17,9 C 16,7 C 95 % 15 lf 1015,8 hPa 0,0 l/m 0 min 2 min 251 W/m 23,0 km/h (4 Bft)
13.07.2015 13:24 17,9 C 16,7 C 95 % 15 lf 1015,8 hPa 0,0 l/m 0 min 2 min 206 W/m 18,8 km/h (3 Bft)
13.07.2015 13:26 17,9 C 16,7 C 95 % 15 lf 1015,8 hPa 0,0 l/m 0 min 2 min 199 W/m 18,8 km/h (3 Bft)
13.07.2015 13:28 18,0 C 16,7 C 95 % 15 lf 1015,9 hPa 0,0 l/m 0 min 2 min 223 W/m 18,8 km/h (3 Bft)
13.07.2015 13:30 18,1 C 16,7 C 95 % 15 lf 1015,9 hPa 0,0 l/m 0 min 2 min 146 W/m 14,6 km/h (3 Bft)
13.07.2015 13:32 18,1 C 16,7 C 95 % 15 lf 1015,9 hPa 0,0 l/m 0 min 2 min 164 W/m 18,8 km/h (3 Bft)
13.07.2015 13:34 18,1 C 16,7 C 95 % 15 lf 1015,9 hPa 0,0 l/m 0 min 2 min 182 W/m 16,7 km/h (3 Bft)
13.07.2015 13:36 18,1 C 16,7 C 95 % 15 lf 1015,9 hPa 0,0 l/m 0 min 2 min 128 W/m 16,7 km/h (3 Bft)
13.07.2015 13:38 18,1 C 16,7 C 95 % 15 lf 1015,9 hPa 0,0 l/m 0 min 2 min 116 W/m 14,6 km/h (3 Bft)
13.07.2015 13:40 18,1 C 16,7 C 95 % 15 lf 1015,8 hPa 0,0 l/m 0 min 2 min 130 W/m 16,7 km/h (3 Bft)
13.07.2015 13:42 18,1 C 16,7 C 95 % 15 lf 1015,9 hPa 0,0 l/m 0 min 2 min 181 W/m 20,9 km/h (4 Bft)
13.07.2015 13:44 18,1 C 16,7 C 95 % 15 lf 1015,9 hPa 0,0 l/m 0 min 2 min 212 W/m 23,0 km/h (4 Bft)
13.07.2015 13:46 18,1 C 16,7 C 95 % 15 lf 1015,8 hPa 0,0 l/m 0 min 2 min 170 W/m 16,7 km/h (3 Bft)
13.07.2015 13:48 18,1 C 16,7 C 95 % 15 lf 1015,8 hPa 0,2 l/m 0 min 2 min 224 W/m 27,2 km/h (4 Bft)
13.07.2015 13:50 18,1 C 16,7 C 95 % 15 lf 1015,8 hPa 0,2 l/m 0 min 2 min 294 W/m 27,2 km/h (4 Bft)
13.07.2015 13:52 18,1 C 16,7 C 95 % 15 lf 1015,8 hPa 0,0 l/m 0 min 2 min 343 W/m 14,6 km/h (3 Bft)
13.07.2015 13:54 18,1 C 16,7 C 95 % 15 lf 1015,7 hPa 0,0 l/m 0 min 2 min 344 W/m 18,8 km/h (3 Bft)
13.07.2015 13:56 18,2 C 17,2 C 95 % 15 lf 1015,7 hPa 0,0 l/m 0 min 0 min 377 W/m 18,8 km/h (3 Bft)
13.07.2015 13:58 18,2 C 17,2 C 95 % 15 lf 1015,7 hPa 0,0 l/m 0 min 2 min 316 W/m 20,9 km/h (4 Bft)
13.07.2015 14:00 18,2 C 17,2 C 95 % 15 lf 1015,7 hPa 0,0 l/m 0 min 2 min 275 W/m 27,2 km/h (4 Bft)
13.07.2015 14:02 18,3 C 17,2 C 95 % 15 lf 1015,7 hPa 0,0 l/m 0 min 0 min 233 W/m 20,9 km/h (4 Bft)
13.07.2015 14:04 18,3 C 17,2 C 95 % 15 lf 1015,7 hPa 0,0 l/m 0 min 0 min 339 W/m 18,8 km/h (3 Bft)
13.07.2015 14:06 18,4 C 17,2 C 95 % 15 lf 1015,8 hPa 0,0 l/m 0 min 0 min 294 W/m 23,0 km/h (4 Bft)
13.07.2015 14:08 18,4 C 17,2 C 95 % 15 lf 1015,7 hPa 0,0 l/m 0 min 0 min 288 W/m 18,8 km/h (3 Bft)
13.07.2015 14:10 18,4 C 16,7 C 95 % 15 lf 1015,7 hPa 0,2 l/m 0 min 0 min 284 W/m 27,2 km/h (4 Bft)
13.07.2015 14:12 18,4 C 16,7 C 95 % 15 lf 1015,7 hPa 0,0 l/m 0 min 0 min 227 W/m 18,8 km/h (3 Bft)
13.07.2015 14:14 18,4 C 16,7 C 95 % 15 lf 1015,8 hPa 0,0 l/m 0 min 0 min 214 W/m 23,0 km/h (4 Bft)
13.07.2015 14:16 18,4 C 16,7 C 95 % 15 lf 1015,8 hPa 0,0 l/m 0 min 0 min 240 W/m 18,8 km/h (3 Bft)
13.07.2015 14:18 18,4 C 16,7 C 95 % 15 lf 1015,8 hPa 0,0 l/m 0 min 0 min 223 W/m 20,9 km/h (4 Bft)
13.07.2015 14:20 18,4 C 16,7 C 95 % 15 lf 1015,8 hPa 0,0 l/m 0 min 0 min 198 W/m 14,6 km/h (3 Bft)
13.07.2015 14:22 18,4 C 16,7 C 95 % 15 lf 1015,9 hPa 0,0 l/m 0 min 0 min 156 W/m 20,9 km/h (4 Bft)
13.07.2015 14:24 18,4 C 16,7 C 95 % 14 lf 1015,8 hPa 0,0 l/m 0 min 0 min 148 W/m 18,8 km/h (3 Bft)
13.07.2015 14:26 18,4 C 16,7 C 94 % 13 lf 1015,9 hPa 0,0 l/m 0 min 0 min 160 W/m 20,9 km/h (4 Bft)
13.07.2015 14:28 18,4 C 16,7 C 94 % 10 lf 1015,9 hPa 0,0 l/m 0 min 0 min 232 W/m 18,8 km/h (3 Bft)
13.07.2015 14:30 18,4 C 16,7 C 94 % 6 lf 1015,9 hPa 0,0 l/m 0 min 0 min 269 W/m 23,0 km/h (4 Bft)
13.07.2015 14:32 18,4 C 17,2 C 94 % 4 lf 1015,9 hPa 0,0 l/m 0 min 0 min 292 W/m 20,9 km/h (4 Bft)
13.07.2015 14:34 18,5 C 16,7 C 94 % 1 lf 1015,9 hPa 0,0 l/m 0 min 0 min 259 W/m 23,0 km/h (4 Bft)
13.07.2015 14:36 18,5 C 17,2 C 94 % 0 lf 1015,8 hPa 0,0 l/m 0 min 0 min 219 W/m 20,9 km/h (4 Bft)
13.07.2015 14:38 18,6 C 16,7 C 94 % 0 lf 1015,8 hPa 0,0 l/m 0 min 0 min 199 W/m 23,0 km/h (4 Bft)
13.07.2015 14:40 18,6 C 16,7 C 94 % 0 lf 1015,8 hPa 0,0 l/m 0 min 0 min 212 W/m 29,3 km/h (5 Bft)
13.07.2015 14:42 18,6 C 16,7 C 94 % 0 lf 1015,8 hPa 0,0 l/m 0 min 0 min 276 W/m 25,1 km/h (4 Bft)
13.07.2015 14:44 18,6 C 17,2 C 94 % 0 lf 1015,8 hPa 0,0 l/m 0 min 0 min 305 W/m 14,6 km/h (3 Bft)
13.07.2015 14:46 18,6 C 17,2 C 94 % 0 lf 1015,7 hPa 0,0 l/m 0 min 0 min 275 W/m 16,7 km/h (3 Bft)
13.07.2015 14:48 18,7 C 17,2 C 94 % 0 lf 1015,7 hPa 0,0 l/m 0 min 0 min 371 W/m 25,1 km/h (4 Bft)
13.07.2015 14:50 18,7 C 17,2 C 93 % 1 lf 1015,7 hPa 0,0 l/m 0 min 0 min 348 W/m 35,6 km/h (5 Bft)
13.07.2015 14:52 18,7 C 17,2 C 93 % 2 lf 1015,8 hPa 0,0 l/m 0 min 0 min 290 W/m 25,1 km/h (4 Bft)
13.07.2015 14:54 18,8 C 17,2 C 93 % 6 lf 1015,7 hPa 0,0 l/m 0 min 2 min 301 W/m 18,8 km/h (3 Bft)
13.07.2015 14:56 18,8 C 17,2 C 93 % 3 lf 1015,8 hPa 0,0 l/m 0 min 2 min 270 W/m 23,0 km/h (4 Bft)
13.07.2015 14:58 18,8 C 17,2 C 93 % 1 lf 1015,9 hPa 0,0 l/m 0 min 0 min 272 W/m 16,7 km/h (3 Bft)
13.07.2015 15:00 18,8 C 17,2 C 93 % 1 lf 1015,9 hPa 0,0 l/m 0 min 0 min 318 W/m 27,2 km/h (4 Bft)
13.07.2015 15:02 18,8 C 17,2 C 92 % 1 lf 1015,8 hPa 0,0 l/m 0 min 0 min 375 W/m 31,4 km/h (5 Bft)
13.07.2015 15:04 18,9 C 17,2 C 93 % 0 lf 1015,8 hPa 0,0 l/m 0 min 0 min 394 W/m 20,9 km/h (4 Bft)
13.07.2015 15:06 18,9 C 17,8 C 93 % 0 lf 1015,7 hPa 0,0 l/m 2 min 0 min 423 W/m 20,9 km/h (4 Bft)
13.07.2015 15:08 18,9 C 17,8 C 92 % 0 lf 1015,8 hPa 0,0 l/m 0 min 0 min 388 W/m 23,0 km/h (4 Bft)
13.07.2015 15:10 19,0 C 17,8 C 92 % 0 lf 1015,8 hPa 0,0 l/m 0 min 0 min 355 W/m 20,9 km/h (4 Bft)
13.07.2015 15:12 19,1 C 17,8 C 92 % 0 lf 1015,7 hPa 0,0 l/m 0 min 0 min 306 W/m 18,8 km/h (3 Bft)
13.07.2015 15:14 19,1 C 17,8 C 92 % 0 lf 1015,7 hPa 0,0 l/m 0 min 0 min 368 W/m 18,8 km/h (3 Bft)
13.07.2015 15:16 19,1 C 17,8 C 92 % 0 lf 1015,6 hPa 0,0 l/m 2 min 0 min 482 W/m 20,9 km/h (4 Bft)
13.07.2015 15:18 19,2 C 17,8 C 92 % 0 lf 1015,7 hPa 0,0 l/m 0 min 0 min 352 W/m 20,9 km/h (4 Bft)
13.07.2015 15:20 19,3 C 17,8 C 92 % 0 lf 1015,6 hPa 0,0 l/m 0 min 0 min 370 W/m 23,0 km/h (4 Bft)
13.07.2015 15:22 19,3 C 17,8 C 92 % 0 lf 1015,7 hPa 0,0 l/m 0 min 0 min 309 W/m 20,9 km/h (4 Bft)
13.07.2015 15:24 19,3 C 17,8 C 91 % 0 lf 1015,8 hPa 0,0 l/m 0 min 0 min 262 W/m 14,6 km/h (3 Bft)
13.07.2015 15:26 19,4 C 17,8 C 91 % 0 lf 1015,8 hPa 0,0 l/m 0 min 0 min 256 W/m 18,8 km/h (3 Bft)
13.07.2015 15:28 19,4 C 17,8 C 91 % 0 lf 1015,8 hPa 0,0 l/m 0 min 0 min 283 W/m 14,6 km/h (3 Bft)
13.07.2015 15:30 19,4 C 17,8 C 90 % 0 lf 1015,7 hPa 0,0 l/m 0 min 0 min 334 W/m 25,1 km/h (4 Bft)
13.07.2015 15:32 19,4 C 17,2 C 90 % 0 lf 1015,7 hPa 0,0 l/m 0 min 0 min 284 W/m 20,9 km/h (4 Bft)
13.07.2015 15:34 19,4 C 17,8 C 90 % 0 lf 1015,6 hPa 0,0 l/m 0 min 0 min 264 W/m 25,1 km/h (4 Bft)
13.07.2015 15:36 19,4 C 17,2 C 90 % 0 lf 1015,6 hPa 0,0 l/m 0 min 0 min 251 W/m 25,1 km/h (4 Bft)
13.07.2015 15:38 19,5 C 17,2 C 90 % 0 lf 1015,6 hPa 0,0 l/m 0 min 0 min 183 W/m 23,0 km/h (4 Bft)
13.07.2015 15:40 19,5 C 17,2 C 89 % 0 lf 1015,6 hPa 0,0 l/m 0 min 0 min 166 W/m 20,9 km/h (4 Bft)
13.07.2015 15:42 19,5 C 17,2 C 89 % 0 lf 1015,6 hPa 0,0 l/m 0 min 0 min 174 W/m 27,2 km/h (4 Bft)
13.07.2015 15:44 19,4 C 17,2 C 89 % 0 lf 1015,5 hPa 0,0 l/m 0 min 0 min 208 W/m 27,2 km/h (4 Bft)
13.07.2015 15:46 19,4 C 17,2 C 89 % 0 lf 1015,5 hPa 0,0 l/m 0 min 0 min 231 W/m 29,3 km/h (5 Bft)
13.07.2015 15:48 19,4 C 17,2 C 89 % 0 lf 1015,5 hPa 0,0 l/m 0 min 0 min 236 W/m 25,1 km/h (4 Bft)
13.07.2015 15:50 19,4 C 16,7 C 89 % 15 lf 1015,6 hPa 0,0 l/m 0 min 2 min 144 W/m 27,2 km/h (4 Bft)
13.07.2015 15:52 19,4 C 16,7 C 89 % 15 lf 1015,6 hPa 0,0 l/m 0 min 2 min 167 W/m 27,2 km/h (4 Bft)
13.07.2015 15:54 19,4 C 16,7 C 89 % 15 lf 1015,6 hPa 0,0 l/m 0 min 0 min 183 W/m 29,3 km/h (5 Bft)
13.07.2015 15:56 19,3 C 16,7 C 89 % 14 lf 1015,7 hPa 0,0 l/m 0 min 2 min 159 W/m 35,6 km/h (5 Bft)
13.07.2015 15:58 19,3 C 16,7 C 89 % 15 lf 1015,6 hPa 0,0 l/m 0 min 2 min 145 W/m 20,9 km/h (4 Bft)
13.07.2015 16:00 19,3 C 16,7 C 89 % 15 lf 1015,6 hPa 0,0 l/m 0 min 2 min 161 W/m 16,7 km/h (3 Bft)
13.07.2015 16:02 19,2 C 16,7 C 89 % 14 lf 1015,6 hPa 0,0 l/m 0 min 0 min 119 W/m 14,6 km/h (3 Bft)
13.07.2015 16:04 19,2 C 16,7 C 90 % 13 lf 1015,6 hPa 0,0 l/m 0 min 0 min 121 W/m 16,7 km/h (3 Bft)
13.07.2015 16:06 19,2 C 16,7 C 90 % 12 lf 1015,6 hPa 0,0 l/m 0 min 0 min 155 W/m 18,8 km/h (3 Bft)
13.07.2015 16:08 19,1 C 16,7 C 90 % 7 lf 1015,7 hPa 0,0 l/m 0 min 0 min 160 W/m 16,7 km/h (3 Bft)
13.07.2015 16:10 19,1 C 16,7 C 90 % 4 lf 1015,7 hPa 0,0 l/m 0 min 0 min 148 W/m 20,9 km/h (4 Bft)
13.07.2015 16:12 19,1 C 16,7 C 90 % 3 lf 1015,7 hPa 0,0 l/m 0 min 0 min 151 W/m 16,7 km/h (3 Bft)
13.07.2015 16:14 19,0 C 16,7 C 90 % 2 lf 1015,6 hPa 0,0 l/m 0 min 2 min 183 W/m 18,8 km/h (3 Bft)
13.07.2015 16:16 19,0 C 16,7 C 90 % 3 lf 1015,7 hPa 0,0 l/m 0 min 0 min 205 W/m 16,7 km/h (3 Bft)
13.07.2015 16:18 19,0 C 16,7 C 90 % 3 lf 1015,7 hPa 0,0 l/m 0 min 0 min 205 W/m 16,7 km/h (3 Bft)
13.07.2015 16:20 18,9 C 16,7 C 90 % 4 lf 1015,7 hPa 0,0 l/m 0 min 2 min 181 W/m 20,9 km/h (4 Bft)
13.07.2015 16:22 18,9 C 16,7 C 91 % 4 lf 1015,6 hPa 0,0 l/m 0 min 0 min 140 W/m 20,9 km/h (4 Bft)
13.07.2015 16:24 18,8 C 16,7 C 90 % 14 lf 1015,6 hPa 0,0 l/m 0 min 2 min 101 W/m 18,8 km/h (3 Bft)
13.07.2015 16:26 18,8 C 16,1 C 90 % 15 lf 1015,6 hPa 0,0 l/m 0 min 2 min 67 W/m 18,8 km/h (3 Bft)
13.07.2015 16:28 18,7 C 16,1 C 91 % 15 lf 1015,7 hPa 0,0 l/m 0 min 2 min 70 W/m 23,0 km/h (4 Bft)
13.07.2015 16:30 18,7 C 16,1 C 90 % 15 lf 1015,6 hPa 0,0 l/m 0 min 2 min 70 W/m 23,0 km/h (4 Bft)
13.07.2015 16:32 18,6 C 16,1 C 91 % 15 lf 1015,6 hPa 0,0 l/m 0 min 2 min 59 W/m 14,6 km/h (3 Bft)
13.07.2015 16:34 18,6 C 16,1 C 91 % 15 lf 1015,6 hPa 0,2 l/m 0 min 2 min 95 W/m 12,6 km/h (3 Bft)
13.07.2015 16:36 18,6 C 16,1 C 91 % 15 lf 1015,6 hPa 0,0 l/m 0 min 2 min 120 W/m 8,4 km/h (2 Bft)
13.07.2015 16:38 18,6 C 16,7 C 91 % 15 lf 1015,6 hPa 0,0 l/m 0 min 2 min 189 W/m 18,8 km/h (3 Bft)
13.07.2015 16:40 18,5 C 16,7 C 92 % 15 lf 1015,6 hPa 0,0 l/m 0 min 2 min 223 W/m 18,8 km/h (3 Bft)
13.07.2015 16:42 18,5 C 16,7 C 92 % 15 lf 1015,6 hPa 0,0 l/m 0 min 2 min 177 W/m 23,0 km/h (4 Bft)
13.07.2015 16:44 18,4 C 16,7 C 92 % 15 lf 1015,5 hPa 0,0 l/m 0 min 2 min 153 W/m 27,2 km/h (4 Bft)
13.07.2015 16:46 18,4 C 16,7 C 92 % 15 lf 1015,5 hPa 0,0 l/m 0 min 0 min 197 W/m 23,0 km/h (4 Bft)
13.07.2015 16:48 18,4 C 16,7 C 92 % 15 lf 1015,4 hPa 0,0 l/m 0 min 0 min 222 W/m 18,8 km/h (3 Bft)
13.07.2015 16:50 18,4 C 16,7 C 92 % 15 lf 1015,4 hPa 0,0 l/m 0 min 0 min 179 W/m 23,0 km/h (4 Bft)
13.07.2015 16:52 18,4 C 16,7 C 93 % 15 lf 1015,4 hPa 0,0 l/m 0 min 0 min 146 W/m 18,8 km/h (3 Bft)
13.07.2015 16:54 18,4 C 16,7 C 93 % 15 lf 1015,5 hPa 0,0 l/m 0 min 0 min 161 W/m 14,6 km/h (3 Bft)
13.07.2015 16:56 18,4 C 16,7 C 93 % 15 lf 1015,5 hPa 0,0 l/m 0 min 0 min 166 W/m 27,2 km/h (4 Bft)
13.07.2015 16:58 18,4 C 16,7 C 93 % 15 lf 1015,4 hPa 0,0 l/m 0 min 2 min 111 W/m 33,5 km/h (5 Bft)
13.07.2015 17:00 18,4 C 16,7 C 93 % 15 lf 1015,4 hPa 0,0 l/m 0 min 2 min 144 W/m 23,0 km/h (4 Bft)
13.07.2015 17:02 18,4 C 16,7 C 93 % 15 lf 1015,4 hPa 0,0 l/m 0 min 2 min 253 W/m 16,7 km/h (3 Bft)
13.07.2015 17:04 18,4 C 17,2 C 93 % 15 lf 1015,3 hPa 0,0 l/m 0 min 0 min 282 W/m 25,1 km/h (4 Bft)
13.07.2015 17:06 18,4 C 17,2 C 93 % 15 lf 1015,4 hPa 0,0 l/m 0 min 0 min 283 W/m 20,9 km/h (4 Bft)
13.07.2015 17:08 18,5 C 17,2 C 93 % 15 lf 1015,3 hPa 0,0 l/m 0 min 0 min 277 W/m 27,2 km/h (4 Bft)
13.07.2015 17:10 18,5 C 17,2 C 94 % 15 lf 1015,3 hPa 0,0 l/m 0 min 0 min 258 W/m 20,9 km/h (4 Bft)
13.07.2015 17:12 18,6 C 17,2 C 94 % 15 lf 1015,4 hPa 0,0 l/m 0 min 0 min 207 W/m 23,0 km/h (4 Bft)
13.07.2015 17:14 18,6 C 16,7 C 94 % 14 lf 1015,4 hPa 0,0 l/m 0 min 0 min 156 W/m 18,8 km/h (3 Bft)
13.07.2015 17:16 18,6 C 16,7 C 94 % 12 lf 1015,4 hPa 0,0 l/m 0 min 0 min 133 W/m 20,9 km/h (4 Bft)
13.07.2015 17:18 18,6 C 16,7 C 94 % 9 lf 1015,4 hPa 0,0 l/m 0 min 0 min 126 W/m 20,9 km/h (4 Bft)
13.07.2015 17:20 18,6 C 16,7 C 94 % 4 lf 1015,4 hPa 0,0 l/m 0 min 0 min 113 W/m 27,2 km/h (4 Bft)
13.07.2015 17:22 18,5 C 16,7 C 94 % 2 lf 1015,4 hPa 0,0 l/m 0 min 0 min 124 W/m 20,9 km/h (4 Bft)
13.07.2015 17:24 18,5 C 16,7 C 94 % 0 lf 1015,4 hPa 0,0 l/m 0 min 0 min 123 W/m 25,1 km/h (4 Bft)
13.07.2015 17:26 18,4 C 16,7 C 93 % 0 lf 1015,5 hPa 0,0 l/m 0 min 0 min 110 W/m 33,5 km/h (5 Bft)
13.07.2015 17:28 18,4 C 16,7 C 93 % 1 lf 1015,4 hPa 0,0 l/m 0 min 0 min 90 W/m 18,8 km/h (3 Bft)
13.07.2015 17:30 18,4 C 16,7 C 93 % 1 lf 1015,4 hPa 0,0 l/m 0 min 0 min 51 W/m 25,1 km/h (4 Bft)
13.07.2015 17:32 18,4 C 16,7 C 93 % 2 lf 1015,4 hPa 0,0 l/m 0 min 0 min 54 W/m 14,6 km/h (3 Bft)
13.07.2015 17:34 18,4 C 16,7 C 93 % 14 lf 1015,4 hPa 0,0 l/m 0 min 2 min 41 W/m 18,8 km/h (3 Bft)
13.07.2015 17:36 18,4 C 16,7 C 93 % 15 lf 1015,4 hPa 0,0 l/m 0 min 2 min 31 W/m 12,6 km/h (3 Bft)
13.07.2015 17:38 18,4 C 16,7 C 94 % 15 lf 1015,5 hPa 0,0 l/m 0 min 2 min 40 W/m 12,6 km/h (3 Bft)
13.07.2015 17:40 18,3 C 16,7 C 94 % 15 lf 1015,5 hPa 0,0 l/m 0 min 2 min 61 W/m 14,6 km/h (3 Bft)
13.07.2015 17:42 18,3 C 16,7 C 94 % 15 lf 1015,5 hPa 0,2 l/m 0 min 2 min 110 W/m 12,6 km/h (3 Bft)
13.07.2015 17:44 18,3 C 16,7 C 94 % 15 lf 1015,4 hPa 0,0 l/m 0 min 0 min 87 W/m 12,6 km/h (3 Bft)
13.07.2015 17:46 18,3 C 16,7 C 94 % 15 lf 1015,5 hPa 0,0 l/m 0 min 0 min 62 W/m 14,6 km/h (3 Bft)
13.07.2015 17:48 18,3 C 16,7 C 94 % 15 lf 1015,5 hPa 0,0 l/m 0 min 2 min 52 W/m 16,7 km/h (3 Bft)
13.07.2015 17:50 18,3 C 16,1 C 94 % 15 lf 1015,5 hPa 0,0 l/m 0 min 2 min 56 W/m 16,7 km/h (3 Bft)
13.07.2015 17:52 18,3 C 16,1 C 94 % 15 lf 1015,4 hPa 0,0 l/m 0 min 2 min 58 W/m 16,7 km/h (3 Bft)
13.07.2015 17:54 18,2 C 16,7 C 94 % 15 lf 1015,4 hPa 0,0 l/m 0 min 2 min 64 W/m 14,6 km/h (3 Bft)
13.07.2015 17:56 18,2 C 16,7 C 94 % 15 lf 1015,4 hPa 0,0 l/m 0 min 2 min 72 W/m 20,9 km/h (4 Bft)
13.07.2015 17:58 18,2 C 16,7 C 94 % 15 lf 1015,4 hPa 0,0 l/m 0 min 2 min 80 W/m 12,6 km/h (3 Bft)
13.07.2015 18:00 18,2 C 16,7 C 94 % 15 lf 1015,3 hPa 0,0 l/m 0 min 0 min 89 W/m 10,5 km/h (2 Bft)
13.07.2015 18:02 18,2 C 16,7 C 94 % 15 lf 1015,3 hPa 0,0 l/m 0 min 2 min 95 W/m 14,6 km/h (3 Bft)
13.07.2015 18:05 18,2 C 16,7 C 94 % 15 lf 1015,2 hPa 0,0 l/m 0 min 2 min 76 W/m 14,6 km/h (3 Bft)
13.07.2015 18:08 18,2 C 16,7 C 94 % 15 lf 1015,2 hPa 0,0 l/m 0 min 2 min 82 W/m 18,8 km/h (3 Bft)
13.07.2015 18:10 18,2 C 16,7 C 95 % 15 lf 1015,1 hPa 0,0 l/m 0 min 2 min 77 W/m 8,4 km/h (2 Bft)
13.07.2015 18:12 18,2 C 16,7 C 95 % 15 lf 1015,1 hPa 0,0 l/m 0 min 2 min 66 W/m 14,6 km/h (3 Bft)
13.07.2015 18:14 18,2 C 16,7 C 95 % 15 lf 1015,2 hPa 0,0 l/m 0 min 2 min 53 W/m 10,5 km/h (2 Bft)
13.07.2015 18:16 18,2 C 16,7 C 95 % 15 lf 1015,2 hPa 0,0 l/m 0 min 0 min 40 W/m 14,6 km/h (3 Bft)
13.07.2015 18:18 18,2 C 16,7 C 95 % 15 lf 1015,2 hPa 0,0 l/m 0 min 2 min 26 W/m 10,5 km/h (2 Bft)
13.07.2015 18:20 18,2 C 16,1 C 95 % 15 lf 1015,1 hPa 0,0 l/m 0 min 2 min 23 W/m 14,6 km/h (3 Bft)
13.07.2015 18:22 18,2 C 16,1 C 95 % 15 lf 1015,2 hPa 0,2 l/m 0 min 2 min 35 W/m 14,6 km/h (3 Bft)
13.07.2015 18:24 18,2 C 16,7 C 95 % 15 lf 1015,1 hPa 0,0 l/m 0 min 2 min 45 W/m 12,6 km/h (3 Bft)
13.07.2015 18:26 18,2 C 16,7 C 95 % 15 lf 1015,1 hPa 0,0 l/m 0 min 2 min 44 W/m 10,5 km/h (2 Bft)
13.07.2015 18:28 18,2 C 16,1 C 95 % 15 lf 1015,1 hPa 0,0 l/m 0 min 2 min 39 W/m 18,8 km/h (3 Bft)
13.07.2015 18:30 18,1 C 16,1 C 95 % 15 lf 1015,1 hPa 0,0 l/m 0 min 2 min 42 W/m 18,8 km/h (3 Bft)
13.07.2015 18:32 18,1 C 16,1 C 95 % 15 lf 1015,0 hPa 0,2 l/m 0 min 2 min 65 W/m 27,2 km/h (4 Bft)
13.07.2015 18:34 18,1 C 16,7 C 95 % 15 lf 1015,0 hPa 0,0 l/m 0 min 2 min 84 W/m 16,7 km/h (3 Bft)
13.07.2015 18:36 18,1 C 16,7 C 95 % 15 lf 1015,0 hPa 0,0 l/m 0 min 2 min 88 W/m 16,7 km/h (3 Bft)
13.07.2015 18:38 18,1 C 16,7 C 95 % 15 lf 1015,0 hPa 0,0 l/m 0 min 2 min 88 W/m 14,6 km/h (3 Bft)
13.07.2015 18:40 18,1 C 16,7 C 95 % 15 lf 1015,0 hPa 0,0 l/m 0 min 2 min 90 W/m 12,6 km/h (3 Bft)
13.07.2015 18:42 18,1 C 16,7 C 95 % 15 lf 1015,0 hPa 0,0 l/m 0 min 2 min 98 W/m 16,7 km/h (3 Bft)
13.07.2015 18:44 18,2 C 16,7 C 95 % 15 lf 1014,9 hPa 0,0 l/m 0 min 2 min 117 W/m 20,9 km/h (4 Bft)
13.07.2015 18:46 18,2 C 16,7 C 95 % 15 lf 1014,8 hPa 0,0 l/m 0 min 2 min 106 W/m 18,8 km/h (3 Bft)
13.07.2015 18:48 18,2 C 16,7 C 95 % 15 lf 1014,8 hPa 0,0 l/m 0 min 2 min 81 W/m 14,6 km/h (3 Bft)
13.07.2015 18:50 18,2 C 16,7 C 95 % 15 lf 1014,8 hPa 0,0 l/m 0 min 2 min 70 W/m 20,9 km/h (4 Bft)
13.07.2015 18:52 18,2 C 16,7 C 95 % 15 lf 1014,8 hPa 0,0 l/m 0 min 2 min 61 W/m 10,5 km/h (2 Bft)
13.07.2015 18:54 18,2 C 16,7 C 95 % 15 lf 1014,8 hPa 0,2 l/m 0 min 2 min 62 W/m 10,5 km/h (2 Bft)
13.07.2015 18:56 18,2 C 16,7 C 95 % 15 lf 1014,8 hPa 0,0 l/m 0 min 2 min 80 W/m 16,7 km/h (3 Bft)
13.07.2015 18:58 18,2 C 16,7 C 95 % 15 lf 1014,8 hPa 0,0 l/m 0 min 2 min 77 W/m 18,8 km/h (3 Bft)
13.07.2015 19:00 18,2 C 16,7 C 96 % 15 lf 1014,8 hPa 0,0 l/m 0 min 2 min 71 W/m 14,6 km/h (3 Bft)
13.07.2015 19:02 18,2 C 16,7 C 96 % 15 lf 1014,8 hPa 0,0 l/m 0 min 2 min 63 W/m 14,6 km/h (3 Bft)
13.07.2015 19:04 18,2 C 16,7 C 96 % 15 lf 1014,8 hPa 0,0 l/m 0 min 2 min 67 W/m 10,5 km/h (2 Bft)
13.07.2015 19:06 18,2 C 16,7 C 96 % 15 lf 1014,8 hPa 0,0 l/m 0 min 2 min 74 W/m 16,7 km/h (3 Bft)
13.07.2015 19:08 18,2 C 16,7 C 96 % 15 lf 1014,8 hPa 0,0 l/m 0 min 2 min 69 W/m 18,8 km/h (3 Bft)
13.07.2015 19:10 18,2 C 16,7 C 96 % 15 lf 1014,8 hPa 0,0 l/m 0 min 2 min 89 W/m 20,9 km/h (4 Bft)
13.07.2015 19:12 18,3 C 16,7 C 96 % 15 lf 1014,8 hPa 0,0 l/m 0 min 0 min 75 W/m 20,9 km/h (4 Bft)
13.07.2015 19:14 18,2 C 16,7 C 96 % 15 lf 1014,8 hPa 0,0 l/m 0 min 0 min 74 W/m 14,6 km/h (3 Bft)
13.07.2015 19:16 18,2 C 16,7 C 96 % 15 lf 1014,8 hPa 0,0 l/m 0 min 2 min 65 W/m 20,9 km/h (4 Bft)
13.07.2015 19:18 18,2 C 16,7 C 96 % 15 lf 1014,8 hPa 0,0 l/m 0 min 2 min 62 W/m 27,2 km/h (4 Bft)
13.07.2015 19:20 18,2 C 16,7 C 96 % 15 lf 1014,8 hPa 0,0 l/m 0 min 2 min 73 W/m 27,2 km/h (4 Bft)
13.07.2015 19:22 18,2 C 16,7 C 96 % 15 lf 1014,8 hPa 0,2 l/m 0 min 2 min 75 W/m 25,1 km/h (4 Bft)
13.07.2015 19:24 18,2 C 16,7 C 96 % 15 lf 1014,8 hPa 0,0 l/m 0 min 2 min 70 W/m 33,5 km/h (5 Bft)
13.07.2015 19:26 18,1 C 16,7 C 96 % 15 lf 1014,8 hPa 0,0 l/m 0 min 2 min 62 W/m 23,0 km/h (4 Bft)
13.07.2015 19:28 18,1 C 16,7 C 96 % 15 lf 1014,8 hPa 0,0 l/m 0 min 2 min 57 W/m 23,0 km/h (4 Bft)
13.07.2015 19:30 18,1 C 16,7 C 96 % 15 lf 1014,9 hPa 0,0 l/m 0 min 2 min 49 W/m 27,2 km/h (4 Bft)
13.07.2015 19:32 18,1 C 16,1 C 96 % 15 lf 1014,9 hPa 0,0 l/m 0 min 2 min 40 W/m 16,7 km/h (3 Bft)
13.07.2015 19:34 18,1 C 16,7 C 96 % 15 lf 1014,9 hPa 0,0 l/m 0 min 2 min 41 W/m 20,9 km/h (4 Bft)
13.07.2015 19:36 18,1 C 16,7 C 96 % 15 lf 1015,0 hPa 0,0 l/m 0 min 2 min 41 W/m 29,3 km/h (5 Bft)
13.07.2015 19:38 18,1 C 16,7 C 96 % 15 lf 1014,9 hPa 0,2 l/m 0 min 2 min 64 W/m 23,0 km/h (4 Bft)
13.07.2015 19:40 18,1 C 16,7 C 96 % 15 lf 1014,9 hPa 0,0 l/m 0 min 2 min 72 W/m 20,9 km/h (4 Bft)
13.07.2015 19:42 18,0 C 16,7 C 96 % 15 lf 1015,0 hPa 0,2 l/m 0 min 2 min 54 W/m 27,2 km/h (4 Bft)
13.07.2015 19:44 18,0 C 16,7 C 96 % 15 lf 1015,0 hPa 0,0 l/m 0 min 2 min 47 W/m 20,9 km/h (4 Bft)
13.07.2015 19:46 18,0 C 16,7 C 96 % 15 lf 1014,9 hPa 0,0 l/m 0 min 2 min 52 W/m 18,8 km/h (3 Bft)
13.07.2015 19:48 18,0 C 16,7 C 96 % 15 lf 1014,9 hPa 0,0 l/m 0 min 2 min 61 W/m 25,1 km/h (4 Bft)
13.07.2015 19:50 18,0 C 16,7 C 96 % 15 lf 1014,9 hPa 0,0 l/m 0 min 0 min 59 W/m 20,9 km/h (4 Bft)
13.07.2015 19:52 18,0 C 16,7 C 96 % 15 lf 1014,9 hPa 0,0 l/m 0 min 0 min 52 W/m 16,7 km/h (3 Bft)
13.07.2015 19:54 18,0 C 16,7 C 96 % 15 lf 1014,9 hPa 0,0 l/m 0 min 0 min 49 W/m 27,2 km/h (4 Bft)
13.07.2015 19:56 18,0 C 16,7 C 96 % 15 lf 1014,9 hPa 0,0 l/m 0 min 0 min 50 W/m 23,0 km/h (4 Bft)
13.07.2015 19:58 18,0 C 16,7 C 96 % 15 lf 1014,9 hPa 0,0 l/m 0 min 0 min 50 W/m 20,9 km/h (4 Bft)
13.07.2015 20:00 18,0 C 16,7 C 96 % 15 lf 1015,0 hPa 0,0 l/m 0 min 0 min 37 W/m 29,3 km/h (5 Bft)
13.07.2015 20:02 18,0 C 16,7 C 96 % 15 lf 1014,9 hPa 0,0 l/m 0 min 0 min 34 W/m 16,7 km/h (3 Bft)
13.07.2015 20:04 18,0 C 16,1 C 96 % 15 lf 1014,9 hPa 0,0 l/m 0 min 0 min 33 W/m 20,9 km/h (4 Bft)
13.07.2015 20:06 17,9 C 16,1 C 96 % 15 lf 1014,9 hPa 0,0 l/m 0 min 0 min 26 W/m 20,9 km/h (4 Bft)
13.07.2015 20:08 17,9 C 16,1 C 96 % 15 lf 1015,0 hPa 0,0 l/m 0 min 0 min 22 W/m 20,9 km/h (4 Bft)
13.07.2015 20:10 17,9 C 16,1 C 96 % 15 lf 1015,0 hPa 0,0 l/m 0 min 0 min 23 W/m 25,1 km/h (4 Bft)
13.07.2015 20:12 17,9 C 16,1 C 96 % 15 lf 1015,0 hPa 0,0 l/m 0 min 0 min 26 W/m 23,0 km/h (4 Bft)
13.07.2015 20:14 17,9 C 16,1 C 96 % 15 lf 1015,0 hPa 0,0 l/m 0 min 2 min 29 W/m 14,6 km/h (3 Bft)
13.07.2015 20:16 17,9 C 16,1 C 96 % 15 lf 1015,0 hPa 0,0 l/m 0 min 2 min 28 W/m 27,2 km/h (4 Bft)
13.07.2015 20:18 17,9 C 16,1 C 96 % 15 lf 1015,0 hPa 0,0 l/m 0 min 2 min 27 W/m 20,9 km/h (4 Bft)
13.07.2015 20:20 17,9 C 16,1 C 96 % 15 lf 1015,1 hPa 0,0 l/m 0 min 2 min 29 W/m 31,4 km/h (5 Bft)
13.07.2015 20:22 17,8 C 16,1 C 96 % 15 lf 1015,0 hPa 0,0 l/m 0 min 0 min 24 W/m 29,3 km/h (5 Bft)
13.07.2015 20:24 17,8 C 16,1 C 96 % 15 lf 1015,0 hPa 0,0 l/m 0 min 0 min 24 W/m 25,1 km/h (4 Bft)
13.07.2015 20:26 17,8 C 16,1 C 96 % 15 lf 1014,9 hPa 0,0 l/m 0 min 0 min 27 W/m 33,5 km/h (5 Bft)
13.07.2015 20:28 17,7 C 16,1 C 97 % 15 lf 1015,0 hPa 0,0 l/m 0 min 0 min 24 W/m 23,0 km/h (4 Bft)
13.07.2015 20:30 17,7 C 16,1 C 97 % 15 lf 1015,0 hPa 0,0 l/m 0 min 2 min 18 W/m 20,9 km/h (4 Bft)
13.07.2015 20:32 17,7 C 16,1 C 97 % 15 lf 1014,9 hPa 0,0 l/m 0 min 2 min 16 W/m 27,2 km/h (4 Bft)
13.07.2015 20:34 17,7 C 16,1 C 97 % 15 lf 1015,0 hPa 0,0 l/m 0 min 2 min 18 W/m 23,0 km/h (4 Bft)
13.07.2015 20:36 17,7 C 16,1 C 97 % 15 lf 1015,0 hPa 0,0 l/m 0 min 2 min 18 W/m 18,8 km/h (3 Bft)
13.07.2015 20:38 17,7 C 16,1 C 97 % 15 lf 1015,0 hPa 0,0 l/m 0 min 0 min 17 W/m 25,1 km/h (4 Bft)
13.07.2015 20:40 17,6 C 16,1 C 96 % 15 lf 1015,0 hPa 0,0 l/m 0 min 0 min 16 W/m 27,2 km/h (4 Bft)
13.07.2015 20:42 17,6 C 16,1 C 96 % 15 lf 1014,9 hPa 0,0 l/m 0 min 0 min 16 W/m 23,0 km/h (4 Bft)
13.07.2015 20:44 17,6 C 16,1 C 96 % 15 lf 1015,1 hPa 0,0 l/m 0 min 0 min 15 W/m 16,7 km/h (3 Bft)
13.07.2015 20:46 17,6 C 16,1 C 97 % 15 lf 1015,0 hPa 0,0 l/m 0 min 0 min 15 W/m 20,9 km/h (4 Bft)
13.07.2015 20:48 17,6 C 16,1 C 97 % 15 lf 1015,0 hPa 0,0 l/m 0 min 0 min 18 W/m 25,1 km/h (4 Bft)
13.07.2015 20:50 17,6 C 16,1 C 97 % 15 lf 1015,0 hPa 0,0 l/m 0 min 0 min 14 W/m 27,2 km/h (4 Bft)
13.07.2015 20:52 17,6 C 16,1 C 97 % 15 lf 1015,0 hPa 0,0 l/m 0 min 2 min 12 W/m 25,1 km/h (4 Bft)
13.07.2015 20:54 17,6 C 16,1 C 97 % 15 lf 1015,0 hPa 0,0 l/m 0 min 2 min 12 W/m 23,0 km/h (4 Bft)
13.07.2015 20:56 17,5 C 16,1 C 97 % 15 lf 1015,0 hPa 0,0 l/m 0 min 2 min 12 W/m 23,0 km/h (4 Bft)
13.07.2015 20:58 17,5 C 16,1 C 97 % 15 lf 1015,0 hPa 0,2 l/m 0 min 2 min 12 W/m 29,3 km/h (5 Bft)
13.07.2015 21:00 17,5 C 16,1 C 97 % 15 lf 1015,0 hPa 0,0 l/m 0 min 2 min 11 W/m 29,3 km/h (5 Bft)
13.07.2015 21:02 17,5 C 16,1 C 97 % 15 lf 1015,0 hPa 0,0 l/m 0 min 2 min 11 W/m 16,7 km/h (3 Bft)
13.07.2015 21:04 17,4 C 16,1 C 97 % 15 lf 1015,1 hPa 0,0 l/m 0 min 0 min 10 W/m 25,1 km/h (4 Bft)
13.07.2015 21:06 17,4 C 16,1 C 97 % 15 lf 1015,1 hPa 0,0 l/m 0 min 0 min 9 W/m 18,8 km/h (3 Bft)
13.07.2015 21:08 17,4 C 16,1 C 97 % 15 lf 1015,0 hPa 0,0 l/m 0 min 0 min 10 W/m 18,8 km/h (3 Bft)
13.07.2015 21:10 17,4 C 16,1 C 97 % 15 lf 1015,1 hPa 0,0 l/m 0 min 0 min 9 W/m 20,9 km/h (4 Bft)
13.07.2015 21:12 17,4 C 16,1 C 97 % 15 lf 1015,1 hPa 0,0 l/m 0 min 0 min 9 W/m 23,0 km/h (4 Bft)
13.07.2015 21:14 17,4 C 16,1 C 97 % 15 lf 1015,1 hPa 0,0 l/m 0 min 0 min 7 W/m 20,9 km/h (4 Bft)
13.07.2015 21:16 17,4 C 16,1 C 97 % 15 lf 1015,0 hPa 0,0 l/m 0 min 0 min 8 W/m 27,2 km/h (4 Bft)
13.07.2015 21:18 17,4 C 16,1 C 97 % 15 lf 1015,1 hPa 0,0 l/m 0 min 0 min 9 W/m 14,6 km/h (3 Bft)
13.07.2015 21:20 17,4 C 16,1 C 97 % 15 lf 1015,1 hPa 0,0 l/m 0 min 0 min 10 W/m 18,8 km/h (3 Bft)
13.07.2015 21:22 17,4 C 16,1 C 97 % 15 lf 1015,0 hPa 0,0 l/m 0 min 0 min 9 W/m 18,8 km/h (3 Bft)
13.07.2015 21:24 17,4 C 16,1 C 97 % 15 lf 1015,1 hPa 0,0 l/m 0 min 0 min 9 W/m 16,7 km/h (3 Bft)
13.07.2015 21:26 17,4 C 16,1 C 97 % 15 lf 1015,1 hPa 0,0 l/m 0 min 0 min 9 W/m 23,0 km/h (4 Bft)
13.07.2015 21:28 17,4 C 16,1 C 97 % 15 lf 1015,1 hPa 0,0 l/m 0 min 0 min 9 W/m 16,7 km/h (3 Bft)
13.07.2015 21:30 17,4 C 16,1 C 97 % 15 lf 1015,1 hPa 0,0 l/m 0 min 0 min 7 W/m 14,6 km/h (3 Bft)
13.07.2015 21:32 17,4 C 16,1 C 97 % 15 lf 1015,0 hPa 0,0 l/m 0 min 0 min 7 W/m 12,6 km/h (3 Bft)
13.07.2015 21:34 17,4 C 16,1 C 97 % 15 lf 1015,1 hPa 0,0 l/m 0 min 2 min 7 W/m 20,9 km/h (4 Bft)
13.07.2015 21:36 17,4 C 16,1 C 97 % 15 lf 1015,1 hPa 0,0 l/m 0 min 0 min 5 W/m 12,6 km/h (3 Bft)
13.07.2015 21:38 17,3 C 16,1 C 97 % 15 lf 1015,1 hPa 0,0 l/m 0 min 0 min 5 W/m 18,8 km/h (3 Bft)
13.07.2015 21:40 17,3 C 16,1 C 97 % 15 lf 1015,1 hPa 0,0 l/m 0 min 0 min 5 W/m 18,8 km/h (3 Bft)
13.07.2015 21:42 17,3 C 15,6 C 97 % 15 lf 1015,2 hPa 0,0 l/m 0 min 0 min 5 W/m 20,9 km/h (4 Bft)
13.07.2015 21:44 17,3 C 16,1 C 97 % 15 lf 1015,2 hPa 0,0 l/m 0 min 0 min 2 W/m 14,6 km/h (3 Bft)
13.07.2015 21:46 17,3 C 15,6 C 97 % 15 lf 1015,2 hPa 0,0 l/m 0 min 0 min 0 W/m 18,8 km/h (3 Bft)
13.07.2015 21:48 17,3 C 15,6 C 97 % 15 lf 1015,1 hPa 0,0 l/m 0 min 0 min 0 W/m 14,6 km/h (3 Bft)
13.07.2015 21:50 17,3 C 15,6 C 97 % 15 lf 1015,2 hPa 0,0 l/m 0 min 0 min 0 W/m 14,6 km/h (3 Bft)
13.07.2015 21:52 17,3 C 15,6 C 97 % 15 lf 1015,2 hPa 0,0 l/m 0 min 0 min 0 W/m 14,6 km/h (3 Bft)
13.07.2015 21:54 17,3 C 15,6 C 97 % 15 lf 1015,2 hPa 0,0 l/m 0 min 0 min 0 W/m 16,7 km/h (3 Bft)
13.07.2015 21:56 17,3 C 15,6 C 97 % 15 lf 1015,2 hPa 0,0 l/m 0 min 0 min 0 W/m 12,6 km/h (3 Bft)
13.07.2015 21:58 17,3 C 15,6 C 97 % 15 lf 1015,2 hPa 0,0 l/m 0 min 0 min 0 W/m 16,7 km/h (3 Bft)
13.07.2015 22:00 17,3 C 15,6 C 97 % 15 lf 1015,3 hPa 0,0 l/m 0 min 0 min 0 W/m 10,5 km/h (2 Bft)
13.07.2015 22:02 17,3 C 15,6 C 97 % 15 lf 1015,3 hPa 0,0 l/m 0 min 0 min 0 W/m 12,6 km/h (3 Bft)
13.07.2015 22:04 17,3 C 15,6 C 97 % 15 lf 1015,3 hPa 0,0 l/m 0 min 0 min 0 W/m 12,6 km/h (3 Bft)
13.07.2015 22:06 17,3 C 15,6 C 97 % 15 lf 1015,3 hPa 0,0 l/m 0 min 0 min 0 W/m 16,7 km/h (3 Bft)
13.07.2015 22:08 17,3 C 15,6 C 97 % 15 lf 1015,4 hPa 0,0 l/m 0 min 0 min 0 W/m 16,7 km/h (3 Bft)
13.07.2015 22:10 17,3 C 15,6 C 97 % 15 lf 1015,3 hPa 0,0 l/m 0 min 0 min 0 W/m 14,6 km/h (3 Bft)
13.07.2015 22:12 17,3 C 15,6 C 97 % 15 lf 1015,4 hPa 0,0 l/m 0 min 0 min 0 W/m 16,7 km/h (3 Bft)
13.07.2015 22:14 17,3 C 15,6 C 97 % 15 lf 1015,4 hPa 0,0 l/m 0 min 0 min 0 W/m 14,6 km/h (3 Bft)
13.07.2015 22:16 17,3 C 15,6 C 97 % 15 lf 1015,4 hPa 0,0 l/m 0 min 0 min 0 W/m 10,5 km/h (2 Bft)
13.07.2015 22:18 17,3 C 15,6 C 97 % 15 lf 1015,4 hPa 0,0 l/m 0 min 0 min 0 W/m 14,6 km/h (3 Bft)
13.07.2015 22:20 17,3 C 15,6 C 97 % 15 lf 1015,4 hPa 0,0 l/m 0 min 0 min 0 W/m 14,6 km/h (3 Bft)
13.07.2015 22:22 17,2 C 15,6 C 97 % 15 lf 1015,4 hPa 0,0 l/m 0 min 0 min 0 W/m 10,5 km/h (2 Bft)
13.07.2015 22:24 17,2 C 15,6 C 97 % 15 lf 1015,4 hPa 0,0 l/m 0 min 0 min 0 W/m 20,9 km/h (4 Bft)
13.07.2015 22:26 17,3 C 15,6 C 97 % 15 lf 1015,5 hPa 0,0 l/m 0 min 0 min 0 W/m 14,6 km/h (3 Bft)
13.07.2015 22:28 17,2 C 15,6 C 97 % 15 lf 1015,5 hPa 0,0 l/m 0 min 0 min 0 W/m 18,8 km/h (3 Bft)
13.07.2015 22:30 17,2 C 15,6 C 97 % 15 lf 1015,5 hPa 0,0 l/m 0 min 0 min 0 W/m 14,6 km/h (3 Bft)
13.07.2015 22:32 17,2 C 15,6 C 97 % 15 lf 1015,5 hPa 0,0 l/m 0 min 0 min 0 W/m 20,9 km/h (4 Bft)
13.07.2015 22:34 17,2 C 15,6 C 97 % 15 lf 1015,5 hPa 0,0 l/m 0 min 0 min 0 W/m 14,6 km/h (3 Bft)
13.07.2015 22:36 17,2 C 15,6 C 97 % 15 lf 1015,5 hPa 0,0 l/m 0 min 2 min 0 W/m 16,7 km/h (3 Bft)
13.07.2015 22:38 17,2 C 15,6 C 97 % 15 lf 1015,5 hPa 0,0 l/m 0 min 2 min 0 W/m 16,7 km/h (3 Bft)
13.07.2015 22:40 17,2 C 15,6 C 97 % 15 lf 1015,5 hPa 0,0 l/m 0 min 2 min 0 W/m 16,7 km/h (3 Bft)
13.07.2015 22:42 17,2 C 15,6 C 97 % 15 lf 1015,5 hPa 0,0 l/m 0 min 0 min 0 W/m 14,6 km/h (3 Bft)
13.07.2015 22:44 17,2 C 15,6 C 97 % 15 lf 1015,5 hPa 0,0 l/m 0 min 0 min 0 W/m 10,5 km/h (2 Bft)
13.07.2015 22:46 17,2 C 15,6 C 97 % 15 lf 1015,5 hPa 0,0 l/m 0 min 0 min 0 W/m 12,6 km/h (3 Bft)
13.07.2015 22:48 17,2 C 15,6 C 97 % 15 lf 1015,5 hPa 0,0 l/m 0 min 0 min 0 W/m 18,8 km/h (3 Bft)
13.07.2015 22:50 17,2 C 15,6 C 97 % 15 lf 1015,5 hPa 0,0 l/m 0 min 0 min 0 W/m 20,9 km/h (4 Bft)
13.07.2015 22:52 17,2 C 15,6 C 97 % 15 lf 1015,5 hPa 0,0 l/m 0 min 0 min 0 W/m 14,6 km/h (3 Bft)
13.07.2015 22:54 17,2 C 15,6 C 97 % 15 lf 1015,5 hPa 0,0 l/m 0 min 0 min 0 W/m 18,8 km/h (3 Bft)
13.07.2015 22:56 17,2 C 15,6 C 97 % 15 lf 1015,5 hPa 0,0 l/m 0 min 0 min 0 W/m 16,7 km/h (3 Bft)
13.07.2015 22:58 17,2 C 15,6 C 97 % 15 lf 1015,5 hPa 0,0 l/m 0 min 0 min 0 W/m 20,9 km/h (4 Bft)
13.07.2015 23:00 17,2 C 15,6 C 97 % 15 lf 1015,5 hPa 0,0 l/m 0 min 0 min 0 W/m 12,6 km/h (3 Bft)
13.07.2015 23:02 17,2 C 15,6 C 97 % 15 lf 1015,4 hPa 0,0 l/m 0 min 0 min 0 W/m 23,0 km/h (4 Bft)
13.07.2015 23:04 17,2 C 15,6 C 97 % 15 lf 1015,5 hPa 0,0 l/m 0 min 0 min 0 W/m 16,7 km/h (3 Bft)
13.07.2015 23:06 17,2 C 15,6 C 97 % 15 lf 1015,4 hPa 0,0 l/m 0 min 0 min 0 W/m 16,7 km/h (3 Bft)
13.07.2015 23:08 17,2 C 15,6 C 97 % 15 lf 1015,4 hPa 0,0 l/m 0 min 0 min 0 W/m 12,6 km/h (3 Bft)
13.07.2015 23:10 17,1 C 15,6 C 97 % 15 lf 1015,3 hPa 0,0 l/m 0 min 0 min 0 W/m 18,8 km/h (3 Bft)
13.07.2015 23:12 17,1 C 15,6 C 97 % 15 lf 1015,3 hPa 0,0 l/m 0 min 0 min 0 W/m 16,7 km/h (3 Bft)
13.07.2015 23:14 17,1 C 15,6 C 97 % 15 lf 1015,3 hPa 0,0 l/m 0 min 0 min 0 W/m 23,0 km/h (4 Bft)
13.07.2015 23:16 17,1 C 15,6 C 97 % 15 lf 1015,4 hPa 0,0 l/m 0 min 0 min 0 W/m 14,6 km/h (3 Bft)
13.07.2015 23:18 17,1 C 15,6 C 97 % 15 lf 1015,4 hPa 0,0 l/m 0 min 0 min 0 W/m 16,7 km/h (3 Bft)
13.07.2015 23:20 17,1 C 15,6 C 97 % 15 lf 1015,4 hPa 0,0 l/m 0 min 0 min 0 W/m 12,6 km/h (3 Bft)
13.07.2015 23:22 17,1 C 15,6 C 97 % 15 lf 1015,4 hPa 0,0 l/m 0 min 0 min 0 W/m 10,5 km/h (2 Bft)
13.07.2015 23:24 17,1 C 15,6 C 97 % 15 lf 1015,3 hPa 0,0 l/m 0 min 0 min 0 W/m 16,7 km/h (3 Bft)
13.07.2015 23:26 17,1 C 15,6 C 97 % 15 lf 1015,3 hPa 0,0 l/m 0 min 0 min 0 W/m 16,7 km/h (3 Bft)
13.07.2015 23:28 17,1 C 15,6 C 97 % 15 lf 1015,3 hPa 0,0 l/m 0 min 0 min 0 W/m 23,0 km/h (4 Bft)
13.07.2015 23:30 17,1 C 15,6 C 97 % 15 lf 1015,3 hPa 0,0 l/m 0 min 0 min 0 W/m 16,7 km/h (3 Bft)
13.07.2015 23:32 17,1 C 15,6 C 97 % 15 lf 1015,2 hPa 0,0 l/m 0 min 0 min 0 W/m 16,7 km/h (3 Bft)
13.07.2015 23:34 17,1 C 15,6 C 97 % 15 lf 1015,2 hPa 0,0 l/m 0 min 0 min 0 W/m 18,8 km/h (3 Bft)
13.07.2015 23:36 17,1 C 15,6 C 97 % 15 lf 1015,2 hPa 0,0 l/m 0 min 0 min 0 W/m 18,8 km/h (3 Bft)
13.07.2015 23:38 17,0 C 15,6 C 97 % 15 lf 1015,2 hPa 0,0 l/m 0 min 0 min 0 W/m 16,7 km/h (3 Bft)
13.07.2015 23:40 17,0 C 15,6 C 97 % 15 lf 1015,2 hPa 0,0 l/m 0 min 0 min 0 W/m 16,7 km/h (3 Bft)
13.07.2015 23:42 17,0 C 15,6 C 97 % 15 lf 1015,3 hPa 0,0 l/m 0 min 0 min 0 W/m 14,6 km/h (3 Bft)
13.07.2015 23:44 17,0 C 15,6 C 97 % 15 lf 1015,3 hPa 0,0 l/m 0 min 0 min 0 W/m 14,6 km/h (3 Bft)
13.07.2015 23:46 17,0 C 15,6 C 97 % 15 lf 1015,3 hPa 0,0 l/m 0 min 2 min 0 W/m 12,6 km/h (3 Bft)
13.07.2015 23:48 17,0 C 15,6 C 97 % 15 lf 1015,2 hPa 0,0 l/m 0 min 2 min 0 W/m 12,6 km/h (3 Bft)
13.07.2015 23:50 17,0 C 15,6 C 97 % 15 lf 1015,2 hPa 0,0 l/m 0 min 2 min 0 W/m 16,7 km/h (3 Bft)
13.07.2015 23:52 17,0 C 15,6 C 97 % 15 lf 1015,2 hPa 0,0 l/m 0 min 2 min 0 W/m 25,1 km/h (4 Bft)
13.07.2015 23:54 17,0 C 15,6 C 97 % 15 lf 1015,3 hPa 0,0 l/m 0 min 2 min 0 W/m 20,9 km/h (4 Bft)
13.07.2015 23:56 17,0 C 15,6 C 97 % 15 lf 1015,3 hPa 0,0 l/m 0 min 2 min 0 W/m 25,1 km/h (4 Bft)
13.07.2015 23:58 17,0 C 15,6 C 97 % 15 lf 1015,3 hPa 0,0 l/m 0 min 2 min 0 W/m 20,9 km/h (4 Bft)
_ Min-Zeit 02:30 01:18 00:52 00:00 18:46 - - - - 00:02
Minimum _ 16,3 C 15,0 C 83 % 0 lf 1014,8 hPa - - - - 6,3 km/h (2 Bft)
_ Max-Zeit 15:36 15:06 20:28 10:14 00:02 12:08 15:06 08:52 15:16 14:50
Maximum _ 19,5 C 17,8 C 97 % 15 lf 1017,8 hPa 0,2 l/m 2 min 2 min 482 W/m 35,6 km/h
W-SW (5 Bft)
Durchschnitt _ 17,3 C 15,9 C 91 % 7 lf 1015,9 hPa #3,2 l/m #4 min. #5:58 h 111 W/m 17,6 km/h (3 Bft)
© 2015 W. Hausmann